Wetterdaten: Sonntag, 06.01.2019
Datum Zeit Temp. Aussen Temp. o. S. +5cm Feuchte Auss Luftdruck Regen Sonnenschein Regendauer Solar Windben Empfang
06.01.2019 00:00 5,3 C 4,4 C 3,9 C 98 % 1029,2 hPa 0,0 l/m 0 min 0 min 0 W/m 16,1 km/h (3 Bft) 97,87 %
06.01.2019 00:02 5,3 C 4,4 C 3,9 C 98 % 1029,2 hPa 0,0 l/m 0 min 0 min 0 W/m 16,1 km/h (3 Bft) 94,74 %
06.01.2019 00:04 5,3 C 4,4 C 3,9 C 98 % 1029,2 hPa 0,0 l/m 0 min 0 min 0 W/m 19,3 km/h (3 Bft) 97,83 %
06.01.2019 00:07 5,3 C 4,4 C 3,9 C 98 % 1029,2 hPa 0,0 l/m 0 min 0 min 0 W/m 19,3 km/h (3 Bft) 97,18 %
06.01.2019 00:08 5,3 C 4,4 C 3,9 C 98 % 1029,2 hPa 0,0 l/m 0 min 0 min 0 W/m 9,7 km/h (2 Bft) 100,00 %
06.01.2019 00:10 5,3 C 4,4 C 3,9 C 98 % 1029,1 hPa 0,0 l/m 0 min 0 min 0 W/m 32,2 km/h (5 Bft) 95,74 %
06.01.2019 00:12 5,3 C 4,4 C 3,9 C 98 % 1029,1 hPa 0,0 l/m 0 min 0 min 0 W/m 16,1 km/h (3 Bft) 97,87 %
06.01.2019 00:14 5,3 C 4,4 C 3,9 C 98 % 1029,1 hPa 0,0 l/m 0 min 0 min 0 W/m 12,9 km/h (3 Bft) 97,87 %
06.01.2019 00:16 5,2 C 4,4 C 3,9 C 98 % 1029,0 hPa 0,0 l/m 0 min 0 min 0 W/m 12,9 km/h (3 Bft) 100,00 %
06.01.2019 00:18 5,2 C 4,4 C 3,9 C 98 % 1029,0 hPa 0,0 l/m 0 min 0 min 0 W/m 22,5 km/h (4 Bft) 97,83 %
06.01.2019 00:20 5,2 C 4,4 C 3,9 C 98 % 1029,0 hPa 0,0 l/m 0 min 0 min 0 W/m 25,7 km/h (4 Bft) 97,87 %
06.01.2019 00:22 5,2 C 4,4 C 3,9 C 98 % 1029,1 hPa 0,0 l/m 0 min 0 min 0 W/m 22,5 km/h (4 Bft) 97,87 %
06.01.2019 00:24 5,2 C 4,4 C 3,9 C 98 % 1029,2 hPa 0,0 l/m 0 min 0 min 0 W/m 12,9 km/h (3 Bft) 100,00 %
06.01.2019 00:26 5,2 C 4,4 C 3,9 C 98 % 1029,1 hPa 0,0 l/m 0 min 0 min 0 W/m 12,9 km/h (3 Bft) 97,87 %
06.01.2019 00:28 5,2 C 4,4 C 3,9 C 98 % 1029,1 hPa 0,0 l/m 0 min 0 min 0 W/m 16,1 km/h (3 Bft) 97,83 %
06.01.2019 00:30 5,2 C 4,4 C 3,9 C 98 % 1029,1 hPa 0,0 l/m 0 min 0 min 0 W/m 25,7 km/h (4 Bft) 97,87 %
06.01.2019 00:32 5,2 C 4,4 C 3,9 C 98 % 1029,2 hPa 0,0 l/m 0 min 0 min 0 W/m 19,3 km/h (3 Bft) 97,87 %
06.01.2019 00:34 5,2 C 4,4 C 3,9 C 98 % 1029,2 hPa 0,0 l/m 0 min 0 min 0 W/m 12,9 km/h (3 Bft) 97,87 %
06.01.2019 00:36 5,3 C 4,4 C 3,9 C 98 % 1029,1 hPa 0,0 l/m 0 min 0 min 0 W/m 22,5 km/h (4 Bft) 98,28 %
06.01.2019 00:38 5,2 C 4,4 C 3,9 C 98 % 1029,1 hPa 0,0 l/m 0 min 0 min 0 W/m 16,1 km/h (3 Bft) 97,22 %
06.01.2019 00:40 5,3 C 4,4 C 3,9 C 98 % 1029,2 hPa 0,0 l/m 0 min 0 min 0 W/m 19,3 km/h (3 Bft) 95,65 %
06.01.2019 00:42 5,3 C 4,4 C 3,9 C 98 % 1029,2 hPa 0,0 l/m 0 min 0 min 0 W/m 16,1 km/h (3 Bft) 95,74 %
06.01.2019 00:44 5,3 C 4,4 C 3,9 C 98 % 1029,3 hPa 0,0 l/m 0 min 0 min 0 W/m 22,5 km/h (4 Bft) 93,62 %
06.01.2019 00:46 5,3 C 4,4 C 3,9 C 98 % 1029,4 hPa 0,0 l/m 0 min 0 min 0 W/m 16,1 km/h (3 Bft) 93,62 %
06.01.2019 00:48 5,3 C 4,4 C 3,9 C 98 % 1029,2 hPa 0,0 l/m 0 min 0 min 0 W/m 22,5 km/h (4 Bft) 95,74 %
06.01.2019 00:50 5,3 C 4,4 C 3,9 C 98 % 1029,3 hPa 0,0 l/m 0 min 0 min 0 W/m 25,7 km/h (4 Bft) 93,62 %
06.01.2019 00:52 5,3 C 4,4 C 3,9 C 98 % 1029,4 hPa 0,0 l/m 0 min 0 min 0 W/m 25,7 km/h (4 Bft) 95,65 %
06.01.2019 00:54 5,3 C 4,4 C 3,9 C 98 % 1029,4 hPa 0,0 l/m 0 min 0 min 0 W/m 19,3 km/h (3 Bft) 95,74 %
06.01.2019 00:56 5,3 C 4,4 C 3,9 C 98 % 1029,3 hPa 0,0 l/m 0 min 0 min 0 W/m 25,7 km/h (4 Bft) 95,74 %
06.01.2019 00:58 5,3 C 4,4 C 3,9 C 98 % 1029,4 hPa 0,0 l/m 0 min 0 min 0 W/m 16,1 km/h (3 Bft) 95,74 %
06.01.2019 01:00 5,3 C 4,4 C 3,9 C 98 % 1029,4 hPa 0,0 l/m 0 min 0 min 0 W/m 19,3 km/h (3 Bft) 93,62 %
06.01.2019 01:02 5,3 C 5,0 C 3,9 C 98 % 1029,4 hPa 0,0 l/m 0 min 0 min 0 W/m 32,2 km/h (5 Bft) 95,65 %
06.01.2019 01:04 5,3 C 5,0 C 3,9 C 98 % 1029,4 hPa 0,0 l/m 0 min 0 min 0 W/m 16,1 km/h (3 Bft) 95,74 %
06.01.2019 01:06 5,3 C 5,0 C 3,9 C 98 % 1029,4 hPa 0,0 l/m 0 min 0 min 0 W/m 22,5 km/h (4 Bft) 94,92 %
06.01.2019 01:08 5,3 C 5,0 C 3,9 C 98 % 1029,4 hPa 0,0 l/m 0 min 0 min 0 W/m 16,1 km/h (3 Bft) 94,29 %
06.01.2019 01:10 5,3 C 5,0 C 3,9 C 98 % 1029,4 hPa 0,0 l/m 0 min 0 min 0 W/m 25,7 km/h (4 Bft) 95,74 %
06.01.2019 01:12 5,3 C 5,0 C 3,9 C 98 % 1029,4 hPa 0,0 l/m 0 min 0 min 0 W/m 12,9 km/h (3 Bft) 93,62 %
06.01.2019 01:14 5,3 C 5,0 C 3,9 C 98 % 1029,4 hPa 0,0 l/m 0 min 0 min 0 W/m 16,1 km/h (3 Bft) 95,65 %
06.01.2019 01:16 5,3 C 5,0 C 3,9 C 98 % 1029,5 hPa 0,0 l/m 0 min 0 min 0 W/m 22,5 km/h (4 Bft) 95,74 %
06.01.2019 01:18 5,3 C 5,0 C 3,9 C 98 % 1029,4 hPa 0,0 l/m 0 min 0 min 0 W/m 29,0 km/h (5 Bft) 97,87 %
06.01.2019 01:20 5,3 C 5,0 C 3,9 C 98 % 1029,4 hPa 0,0 l/m 0 min 0 min 0 W/m 25,7 km/h (4 Bft) 95,74 %
06.01.2019 01:22 5,3 C 5,0 C 3,9 C 98 % 1029,5 hPa 0,0 l/m 0 min 0 min 0 W/m 19,3 km/h (3 Bft) 97,87 %
06.01.2019 01:24 5,3 C 5,0 C 3,9 C 98 % 1029,4 hPa 0,0 l/m 0 min 0 min 0 W/m 19,3 km/h (3 Bft) 100,00 %
06.01.2019 01:26 5,3 C 5,0 C 3,9 C 98 % 1029,4 hPa 0,0 l/m 0 min 0 min 0 W/m 19,3 km/h (3 Bft) 97,83 %
06.01.2019 01:28 5,3 C 5,0 C 3,9 C 98 % 1029,4 hPa 0,0 l/m 0 min 0 min 0 W/m 16,1 km/h (3 Bft) 97,87 %
06.01.2019 01:30 5,3 C 5,0 C 3,9 C 98 % 1029,4 hPa 0,0 l/m 0 min 0 min 0 W/m 25,7 km/h (4 Bft) 100,00 %
06.01.2019 01:32 5,3 C 5,0 C 3,9 C 98 % 1029,4 hPa 0,0 l/m 0 min 0 min 0 W/m 19,3 km/h (3 Bft) 100,00 %
06.01.2019 01:34 5,3 C 5,0 C 3,9 C 98 % 1029,3 hPa 0,0 l/m 0 min 0 min 0 W/m 22,5 km/h (4 Bft) 100,00 %
06.01.2019 01:36 5,3 C 5,0 C 3,9 C 98 % 1029,3 hPa 0,0 l/m 0 min 0 min 0 W/m 12,9 km/h (3 Bft) 100,00 %
06.01.2019 01:38 5,3 C 5,0 C 3,9 C 98 % 1029,3 hPa 0,0 l/m 0 min 0 min 0 W/m 22,5 km/h (4 Bft) 97,83 %
06.01.2019 01:40 5,3 C 5,0 C 3,9 C 98 % 1029,4 hPa 0,0 l/m 0 min 0 min 0 W/m 16,1 km/h (3 Bft) 100,00 %
06.01.2019 01:42 5,3 C 5,0 C 3,9 C 98 % 1029,5 hPa 0,0 l/m 0 min 0 min 0 W/m 29,0 km/h (5 Bft) 100,00 %
06.01.2019 01:44 5,3 C 5,0 C 3,9 C 98 % 1029,5 hPa 0,0 l/m 0 min 0 min 0 W/m 19,3 km/h (3 Bft) 100,00 %
06.01.2019 01:46 5,3 C 5,0 C 3,9 C 98 % 1029,6 hPa 0,0 l/m 0 min 0 min 0 W/m 12,9 km/h (3 Bft) 100,00 %
06.01.2019 01:48 5,2 C 5,0 C 3,9 C 98 % 1029,6 hPa 0,0 l/m 0 min 0 min 0 W/m 25,7 km/h (4 Bft) 100,00 %
06.01.2019 01:50 5,3 C 5,0 C 3,9 C 98 % 1029,6 hPa 0,0 l/m 0 min 0 min 0 W/m 16,1 km/h (3 Bft) 100,00 %
06.01.2019 01:52 5,3 C 5,0 C 3,9 C 98 % 1029,6 hPa 0,0 l/m 0 min 0 min 0 W/m 19,3 km/h (3 Bft) 100,00 %
06.01.2019 01:54 5,2 C 5,0 C 3,9 C 98 % 1029,7 hPa 0,0 l/m 0 min 0 min 0 W/m 19,3 km/h (3 Bft) 100,00 %
06.01.2019 01:56 5,2 C 5,0 C 3,9 C 98 % 1029,6 hPa 0,0 l/m 0 min 0 min 0 W/m 16,1 km/h (3 Bft) 100,00 %
06.01.2019 01:58 5,2 C 5,0 C 3,9 C 98 % 1029,6 hPa 0,0 l/m 0 min 0 min 0 W/m 16,1 km/h (3 Bft) 100,00 %
06.01.2019 02:00 5,2 C 5,0 C 3,9 C 98 % 1029,6 hPa 0,0 l/m 0 min 0 min 0 W/m 19,3 km/h (3 Bft) 100,00 %
06.01.2019 02:02 5,2 C 5,0 C 3,9 C 98 % 1029,6 hPa 0,0 l/m 0 min 0 min 0 W/m 25,7 km/h (4 Bft) 97,83 %
06.01.2019 02:04 5,2 C 4,4 C 3,9 C 97 % 1029,6 hPa 0,0 l/m 0 min 0 min 0 W/m 22,5 km/h (4 Bft) 100,00 %
06.01.2019 02:06 5,2 C 4,4 C 3,9 C 97 % 1029,5 hPa 0,0 l/m 0 min 0 min 0 W/m 12,9 km/h (3 Bft) 100,00 %
06.01.2019 02:08 5,2 C 4,4 C 3,9 C 97 % 1029,5 hPa 0,0 l/m 0 min 0 min 0 W/m 19,3 km/h (3 Bft) 100,00 %
06.01.2019 02:10 5,2 C 4,4 C 3,9 C 97 % 1029,5 hPa 0,0 l/m 0 min 0 min 0 W/m 12,9 km/h (3 Bft) 100,00 %
06.01.2019 02:12 5,2 C 4,4 C 3,9 C 97 % 1029,5 hPa 0,0 l/m 0 min 0 min 0 W/m 12,9 km/h (3 Bft) 97,83 %
06.01.2019 02:14 5,2 C 4,4 C 3,9 C 97 % 1029,6 hPa 0,0 l/m 0 min 0 min 0 W/m 19,3 km/h (3 Bft) 100,00 %
06.01.2019 02:16 5,2 C 4,4 C 3,9 C 97 % 1029,7 hPa 0,0 l/m 0 min 0 min 0 W/m 12,9 km/h (3 Bft) 100,00 %
06.01.2019 02:18 5,2 C 4,4 C 3,9 C 97 % 1029,7 hPa 0,0 l/m 0 min 0 min 0 W/m 16,1 km/h (3 Bft) 100,00 %
06.01.2019 02:20 5,2 C 4,4 C 3,9 C 97 % 1029,7 hPa 0,0 l/m 0 min 0 min 0 W/m 19,3 km/h (3 Bft) 97,87 %
06.01.2019 02:22 5,2 C 4,4 C 3,9 C 97 % 1029,8 hPa 0,0 l/m 0 min 0 min 0 W/m 19,3 km/h (3 Bft) 100,00 %
06.01.2019 02:24 5,2 C 4,4 C 3,9 C 98 % 1029,8 hPa 0,0 l/m 0 min 0 min 0 W/m 16,1 km/h (3 Bft) 97,83 %
06.01.2019 02:26 5,2 C 4,4 C 3,9 C 98 % 1029,7 hPa 0,0 l/m 0 min 0 min 0 W/m 12,9 km/h (3 Bft) 97,87 %
06.01.2019 02:28 5,2 C 4,4 C 3,9 C 98 % 1029,7 hPa 0,0 l/m 0 min 0 min 0 W/m 16,1 km/h (3 Bft) 100,00 %
06.01.2019 02:30 5,1 C 4,4 C 3,9 C 98 % 1029,8 hPa 0,0 l/m 0 min 0 min 0 W/m 9,7 km/h (2 Bft) 97,87 %
06.01.2019 02:32 5,1 C 4,4 C 3,9 C 98 % 1029,8 hPa 0,0 l/m 0 min 0 min 0 W/m 12,9 km/h (3 Bft) 97,87 %
06.01.2019 02:34 5,1 C 4,4 C 3,9 C 98 % 1029,8 hPa 0,0 l/m 0 min 0 min 0 W/m 12,9 km/h (3 Bft) 97,87 %
06.01.2019 02:36 5,1 C 4,4 C 3,9 C 98 % 1029,8 hPa 0,0 l/m 0 min 0 min 0 W/m 19,3 km/h (3 Bft) 97,83 %
06.01.2019 02:38 5,1 C 4,4 C 3,9 C 98 % 1029,9 hPa 0,0 l/m 0 min 0 min 0 W/m 16,1 km/h (3 Bft) 95,74 %
06.01.2019 02:40 5,1 C 4,4 C 3,9 C 98 % 1029,9 hPa 0,0 l/m 0 min 0 min 0 W/m 19,3 km/h (3 Bft) 97,87 %
06.01.2019 02:42 5,1 C 4,4 C 3,9 C 98 % 1029,8 hPa 0,0 l/m 0 min 0 min 0 W/m 16,1 km/h (3 Bft) 97,87 %
06.01.2019 02:44 5,1 C 4,4 C 3,9 C 98 % 1029,8 hPa 0,0 l/m 0 min 0 min 0 W/m 9,7 km/h (2 Bft) 97,87 %
06.01.2019 02:46 5,1 C 4,4 C 3,9 C 98 % 1029,8 hPa 0,0 l/m 0 min 0 min 0 W/m 12,9 km/h (3 Bft) 97,87 %
06.01.2019 02:48 5,0 C 4,4 C 3,9 C 98 % 1029,9 hPa 0,0 l/m 0 min 0 min 0 W/m 12,9 km/h (3 Bft) 97,83 %
06.01.2019 02:50 5,0 C 4,4 C 3,9 C 98 % 1029,9 hPa 0,0 l/m 0 min 0 min 0 W/m 12,9 km/h (3 Bft) 97,87 %
06.01.2019 02:52 5,0 C 4,4 C 3,9 C 98 % 1030,0 hPa 0,0 l/m 0 min 0 min 0 W/m 22,5 km/h (4 Bft) 97,87 %
06.01.2019 02:54 5,0 C 4,4 C 3,9 C 98 % 1030,0 hPa 0,0 l/m 0 min 0 min 0 W/m 16,1 km/h (3 Bft) 95,74 %
06.01.2019 02:56 5,0 C 4,4 C 3,9 C 98 % 1029,9 hPa 0,0 l/m 0 min 0 min 0 W/m 12,9 km/h (3 Bft) 97,87 %
06.01.2019 02:58 5,0 C 4,4 C 3,9 C 97 % 1029,9 hPa 0,0 l/m 0 min 0 min 0 W/m 12,9 km/h (3 Bft) 97,87 %
06.01.2019 03:00 4,9 C 4,4 C 3,9 C 97 % 1029,9 hPa 0,0 l/m 0 min 0 min 0 W/m 16,1 km/h (3 Bft) 95,65 %
06.01.2019 03:02 5,0 C 4,4 C 3,9 C 97 % 1029,9 hPa 0,0 l/m 0 min 0 min 0 W/m 16,1 km/h (3 Bft) 95,74 %
06.01.2019 03:04 4,9 C 4,4 C 3,9 C 97 % 1029,9 hPa 0,0 l/m 0 min 0 min 0 W/m 19,3 km/h (3 Bft) 95,74 %
06.01.2019 03:06 4,9 C 4,4 C 3,9 C 97 % 1029,8 hPa 0,0 l/m 0 min 0 min 0 W/m 12,9 km/h (3 Bft) 96,61 %
06.01.2019 03:08 4,9 C 4,4 C 3,9 C 97 % 1029,9 hPa 0,0 l/m 0 min 0 min 0 W/m 9,7 km/h (2 Bft) 94,44 %
06.01.2019 03:10 4,9 C 4,4 C 3,9 C 97 % 1029,9 hPa 0,0 l/m 0 min 0 min 0 W/m 25,7 km/h (4 Bft) 97,83 %
06.01.2019 03:12 4,9 C 4,4 C 3,9 C 97 % 1029,9 hPa 0,0 l/m 0 min 0 min 0 W/m 12,9 km/h (3 Bft) 97,87 %
06.01.2019 03:14 4,9 C 4,4 C 3,9 C 97 % 1029,8 hPa 0,0 l/m 0 min 0 min 0 W/m 22,5 km/h (4 Bft) 91,49 %
06.01.2019 03:16 4,9 C 4,4 C 3,9 C 97 % 1029,9 hPa 0,0 l/m 0 min 0 min 0 W/m 9,7 km/h (2 Bft) 93,62 %
06.01.2019 03:18 4,9 C 4,4 C 3,9 C 98 % 1029,9 hPa 0,0 l/m 0 min 0 min 0 W/m 16,1 km/h (3 Bft) 93,62 %
06.01.2019 03:20 4,9 C 4,4 C 3,9 C 98 % 1029,9 hPa 0,0 l/m 0 min 0 min 0 W/m 12,9 km/h (3 Bft) 93,62 %
06.01.2019 03:22 4,9 C 4,4 C 3,9 C 98 % 1029,9 hPa 0,0 l/m 0 min 0 min 0 W/m 9,7 km/h (2 Bft) 93,48 %
06.01.2019 03:24 4,9 C 4,4 C 3,9 C 98 % 1029,9 hPa 0,0 l/m 0 min 0 min 0 W/m 9,7 km/h (2 Bft) 95,74 %
06.01.2019 03:26 4,9 C 4,4 C 3,9 C 98 % 1030,0 hPa 0,0 l/m 0 min 0 min 0 W/m 16,1 km/h (3 Bft) 93,62 %
06.01.2019 03:28 4,9 C 4,4 C 3,9 C 98 % 1029,9 hPa 0,0 l/m 0 min 0 min 0 W/m 12,9 km/h (3 Bft) 95,74 %
06.01.2019 03:30 4,9 C 4,4 C 3,9 C 98 % 1029,9 hPa 0,0 l/m 0 min 0 min 0 W/m 12,9 km/h (3 Bft) 95,74 %
06.01.2019 03:32 4,9 C 4,4 C 3,9 C 98 % 1030,0 hPa 0,0 l/m 0 min 0 min 0 W/m 12,9 km/h (3 Bft) 95,74 %
06.01.2019 03:34 4,9 C 4,4 C 3,9 C 98 % 1029,9 hPa 0,0 l/m 0 min 0 min 0 W/m 22,5 km/h (4 Bft) 93,48 %
06.01.2019 03:36 4,9 C 4,4 C 3,9 C 98 % 1029,9 hPa 0,0 l/m 0 min 0 min 0 W/m 19,3 km/h (3 Bft) 93,62 %
06.01.2019 03:38 4,9 C 4,4 C 3,9 C 98 % 1029,9 hPa 0,0 l/m 0 min 0 min 0 W/m 12,9 km/h (3 Bft) 95,74 %
06.01.2019 03:40 4,9 C 4,4 C 3,9 C 98 % 1029,9 hPa 0,0 l/m 0 min 0 min 0 W/m 12,9 km/h (3 Bft) 93,62 %
06.01.2019 03:42 4,9 C 4,4 C 3,9 C 98 % 1029,9 hPa 0,0 l/m 0 min 0 min 0 W/m 12,9 km/h (3 Bft) 93,62 %
06.01.2019 03:44 4,9 C 4,4 C 3,9 C 98 % 1029,9 hPa 0,0 l/m 0 min 0 min 0 W/m 12,9 km/h (3 Bft) 95,74 %
06.01.2019 03:46 4,9 C 4,4 C 3,9 C 98 % 1030,0 hPa 0,0 l/m 0 min 0 min 0 W/m 19,3 km/h (3 Bft) 95,65 %
06.01.2019 03:48 4,9 C 4,4 C 3,9 C 98 % 1029,9 hPa 0,0 l/m 0 min 0 min 0 W/m 16,1 km/h (3 Bft) 93,62 %
06.01.2019 03:50 4,9 C 4,4 C 3,9 C 98 % 1029,9 hPa 0,0 l/m 0 min 0 min 0 W/m 16,1 km/h (3 Bft) 95,74 %
06.01.2019 03:52 4,9 C 4,4 C 3,9 C 98 % 1029,9 hPa 0,0 l/m 0 min 0 min 0 W/m 16,1 km/h (3 Bft) 95,74 %
06.01.2019 03:54 4,9 C 4,4 C 3,9 C 98 % 1029,9 hPa 0,0 l/m 0 min 0 min 0 W/m 12,9 km/h (3 Bft) 95,74 %
06.01.2019 03:56 4,9 C 4,4 C 3,9 C 98 % 1029,9 hPa 0,0 l/m 0 min 0 min 0 W/m 16,1 km/h (3 Bft) 95,74 %
06.01.2019 03:58 4,9 C 4,4 C 3,9 C 98 % 1029,9 hPa 0,0 l/m 0 min 0 min 0 W/m 12,9 km/h (3 Bft) 97,83 %
06.01.2019 04:00 4,9 C 4,4 C 3,9 C 98 % 1029,8 hPa 0,0 l/m 0 min 0 min 0 W/m 12,9 km/h (3 Bft) 95,74 %
06.01.2019 04:05 4,9 C 4,4 C 3,9 C 98 % 1029,7 hPa 0,0 l/m 0 min 0 min 0 W/m 19,3 km/h (3 Bft) 100,00 %
06.01.2019 04:06 4,9 C 4,4 C 3,9 C 98 % 1029,8 hPa 0,0 l/m 0 min 0 min 0 W/m 12,9 km/h (3 Bft) 100,00 %
06.01.2019 04:08 4,9 C 4,4 C 3,9 C 98 % 1029,7 hPa 0,0 l/m 0 min 0 min 0 W/m 16,1 km/h (3 Bft) 97,87 %
06.01.2019 04:10 4,9 C 4,4 C 3,9 C 98 % 1029,7 hPa 0,0 l/m 0 min 0 min 0 W/m 12,9 km/h (3 Bft) 97,87 %
06.01.2019 04:12 4,9 C 4,4 C 3,9 C 98 % 1029,7 hPa 0,0 l/m 0 min 0 min 0 W/m 19,3 km/h (3 Bft) 100,00 %
06.01.2019 04:14 4,9 C 4,4 C 3,9 C 98 % 1029,7 hPa 0,0 l/m 0 min 0 min 0 W/m 16,1 km/h (3 Bft) 100,00 %
06.01.2019 04:16 4,9 C 4,4 C 3,9 C 98 % 1029,7 hPa 0,0 l/m 0 min 0 min 0 W/m 16,1 km/h (3 Bft) 100,00 %
06.01.2019 04:18 4,9 C 4,4 C 3,9 C 98 % 1029,7 hPa 0,0 l/m 0 min 0 min 0 W/m 12,9 km/h (3 Bft) 100,00 %
06.01.2019 04:20 4,9 C 4,4 C 3,9 C 98 % 1029,7 hPa 0,0 l/m 0 min 0 min 0 W/m 22,5 km/h (4 Bft) 100,00 %
06.01.2019 04:22 4,9 C 4,4 C 3,9 C 98 % 1029,8 hPa 0,0 l/m 0 min 0 min 0 W/m 19,3 km/h (3 Bft) 97,87 %
06.01.2019 04:24 4,9 C 4,4 C 3,9 C 98 % 1029,7 hPa 0,0 l/m 0 min 0 min 0 W/m 16,1 km/h (3 Bft) 100,00 %
06.01.2019 04:26 4,9 C 4,4 C 3,9 C 98 % 1029,7 hPa 0,0 l/m 0 min 0 min 0 W/m 16,1 km/h (3 Bft) 100,00 %
06.01.2019 04:28 4,9 C 4,4 C 3,9 C 98 % 1029,7 hPa 0,0 l/m 0 min 0 min 0 W/m 16,1 km/h (3 Bft) 100,00 %
06.01.2019 04:30 4,9 C 4,4 C 3,9 C 98 % 1029,7 hPa 0,0 l/m 0 min 0 min 0 W/m 16,1 km/h (3 Bft) 100,00 %
06.01.2019 04:32 4,9 C 4,4 C 3,9 C 98 % 1029,7 hPa 0,0 l/m 0 min 0 min 0 W/m 22,5 km/h (4 Bft) 100,00 %
06.01.2019 04:34 4,9 C 4,4 C 3,9 C 98 % 1029,8 hPa 0,0 l/m 0 min 0 min 0 W/m 19,3 km/h (3 Bft) 100,00 %
06.01.2019 04:36 4,9 C 4,4 C 3,9 C 98 % 1029,6 hPa 0,0 l/m 0 min 0 min 0 W/m 16,1 km/h (3 Bft) 100,00 %
06.01.2019 04:38 4,9 C 4,4 C 3,9 C 98 % 1029,6 hPa 0,0 l/m 0 min 0 min 0 W/m 19,3 km/h (3 Bft) 100,00 %
06.01.2019 04:40 4,9 C 4,4 C 3,9 C 98 % 1029,6 hPa 0,0 l/m 0 min 0 min 0 W/m 19,3 km/h (3 Bft) 100,00 %
06.01.2019 04:42 4,9 C 4,4 C 3,9 C 98 % 1029,6 hPa 0,0 l/m 0 min 0 min 0 W/m 12,9 km/h (3 Bft) 100,00 %
06.01.2019 04:44 4,9 C 4,4 C 3,9 C 98 % 1029,6 hPa 0,0 l/m 0 min 0 min 0 W/m 16,1 km/h (3 Bft) 100,00 %
06.01.2019 04:46 4,9 C 4,4 C 3,9 C 98 % 1029,6 hPa 0,0 l/m 0 min 0 min 0 W/m 12,9 km/h (3 Bft) 100,00 %
06.01.2019 04:48 4,9 C 4,4 C 3,9 C 98 % 1029,6 hPa 0,0 l/m 0 min 0 min 0 W/m 25,7 km/h (4 Bft) 95,65 %
06.01.2019 04:50 4,9 C 4,4 C 3,9 C 98 % 1029,5 hPa 0,0 l/m 0 min 0 min 0 W/m 16,1 km/h (3 Bft) 100,00 %
06.01.2019 04:52 4,9 C 4,4 C 3,9 C 98 % 1029,6 hPa 0,0 l/m 0 min 0 min 0 W/m 12,9 km/h (3 Bft) 100,00 %
06.01.2019 04:54 4,9 C 4,4 C 3,9 C 98 % 1029,6 hPa 0,0 l/m 0 min 0 min 0 W/m 16,1 km/h (3 Bft) 100,00 %
06.01.2019 04:56 4,9 C 4,4 C 3,9 C 98 % 1029,5 hPa 0,0 l/m 0 min 0 min 0 W/m 19,3 km/h (3 Bft) 100,00 %
06.01.2019 04:58 4,9 C 4,4 C 3,9 C 98 % 1029,5 hPa 0,0 l/m 0 min 0 min 0 W/m 16,1 km/h (3 Bft) 100,00 %
06.01.2019 05:00 4,9 C 4,4 C 3,9 C 98 % 1029,5 hPa 0,0 l/m 0 min 0 min 0 W/m 19,3 km/h (3 Bft) 100,00 %
06.01.2019 05:02 4,9 C 4,4 C 3,9 C 98 % 1029,5 hPa 0,0 l/m 0 min 0 min 0 W/m 16,1 km/h (3 Bft) 100,00 %
06.01.2019 05:04 4,9 C 4,4 C 3,9 C 98 % 1029,5 hPa 0,0 l/m 0 min 0 min 0 W/m 16,1 km/h (3 Bft) 100,00 %
06.01.2019 05:05 4,9 C 4,4 C 3,9 C 98 % 1029,4 hPa 0,0 l/m 0 min 0 min 0 W/m 16,1 km/h (3 Bft) 100,00 %
06.01.2019 05:10 4,9 C 4,4 C 3,9 C 98 % 1029,4 hPa 0,0 l/m 0 min 0 min 0 W/m 19,3 km/h (3 Bft) 100,00 %
06.01.2019 05:12 4,9 C 4,4 C 3,9 C 98 % 1029,4 hPa 0,0 l/m 0 min 0 min 0 W/m 19,3 km/h (3 Bft) 90,91 %
06.01.2019 05:14 4,9 C 4,4 C 3,9 C 98 % 1029,4 hPa 0,0 l/m 0 min 0 min 0 W/m 22,5 km/h (4 Bft) 100,00 %
06.01.2019 05:16 4,9 C 4,4 C 3,9 C 98 % 1029,3 hPa 0,0 l/m 0 min 0 min 0 W/m 12,9 km/h (3 Bft) 100,00 %
06.01.2019 05:18 4,9 C 4,4 C 3,9 C 98 % 1029,3 hPa 0,0 l/m 0 min 0 min 0 W/m 16,1 km/h (3 Bft) 100,00 %
06.01.2019 05:20 4,9 C 4,4 C 3,9 C 98 % 1029,3 hPa 0,0 l/m 0 min 0 min 0 W/m 12,9 km/h (3 Bft) 100,00 %
06.01.2019 05:22 4,9 C 4,4 C 3,9 C 98 % 1029,3 hPa 0,0 l/m 0 min 0 min 0 W/m 16,1 km/h (3 Bft) 97,87 %
06.01.2019 05:24 4,9 C 4,4 C 3,9 C 98 % 1029,2 hPa 0,0 l/m 0 min 0 min 0 W/m 12,9 km/h (3 Bft) 97,83 %
06.01.2019 05:26 4,9 C 4,4 C 3,9 C 98 % 1029,2 hPa 0,0 l/m 0 min 0 min 0 W/m 35,4 km/h (5 Bft) 97,87 %
06.01.2019 05:28 4,9 C 4,4 C 3,9 C 98 % 1029,3 hPa 0,0 l/m 0 min 0 min 0 W/m 16,1 km/h (3 Bft) 100,00 %
06.01.2019 05:30 4,9 C 4,4 C 3,9 C 98 % 1029,2 hPa 0,0 l/m 0 min 0 min 0 W/m 16,1 km/h (3 Bft) 100,00 %
06.01.2019 05:32 4,9 C 4,4 C 3,9 C 98 % 1029,2 hPa 0,0 l/m 0 min 0 min 0 W/m 19,3 km/h (3 Bft) 100,00 %
06.01.2019 05:34 4,9 C 4,4 C 3,9 C 98 % 1029,3 hPa 0,0 l/m 0 min 0 min 0 W/m 12,9 km/h (3 Bft) 100,00 %
06.01.2019 05:36 4,9 C 4,4 C 3,9 C 98 % 1029,3 hPa 0,0 l/m 0 min 0 min 0 W/m 19,3 km/h (3 Bft) 97,83 %
06.01.2019 05:38 4,9 C 4,4 C 3,9 C 98 % 1029,3 hPa 0,0 l/m 0 min 0 min 0 W/m 25,7 km/h (4 Bft) 97,87 %
06.01.2019 05:40 4,9 C 4,4 C 3,9 C 98 % 1029,3 hPa 0,0 l/m 0 min 0 min 0 W/m 16,1 km/h (3 Bft) 100,00 %
06.01.2019 05:42 4,9 C 4,4 C 3,9 C 98 % 1029,3 hPa 0,0 l/m 0 min 0 min 0 W/m 22,5 km/h (4 Bft) 97,87 %
06.01.2019 05:44 4,9 C 4,4 C 3,9 C 98 % 1029,3 hPa 0,0 l/m 0 min 0 min 0 W/m 22,5 km/h (4 Bft) 100,00 %
06.01.2019 05:46 4,9 C 4,4 C 3,9 C 98 % 1029,2 hPa 0,0 l/m 0 min 0 min 0 W/m 12,9 km/h (3 Bft) 95,74 %
06.01.2019 05:48 4,9 C 4,4 C 3,9 C 98 % 1029,3 hPa 0,0 l/m 0 min 0 min 0 W/m 9,7 km/h (2 Bft) 93,62 %
06.01.2019 05:50 4,9 C 4,4 C 3,9 C 98 % 1029,3 hPa 0,0 l/m 0 min 0 min 0 W/m 12,9 km/h (3 Bft) 97,83 %
06.01.2019 05:52 4,9 C 4,4 C 3,9 C 98 % 1029,3 hPa 0,0 l/m 0 min 0 min 0 W/m 16,1 km/h (3 Bft) 93,62 %
06.01.2019 05:54 4,9 C 4,4 C 3,9 C 98 % 1029,2 hPa 0,0 l/m 0 min 0 min 0 W/m 19,3 km/h (3 Bft) 95,74 %
06.01.2019 05:56 4,9 C 4,4 C 3,9 C 98 % 1029,2 hPa 0,0 l/m 0 min 0 min 0 W/m 19,3 km/h (3 Bft) 95,74 %
06.01.2019 05:58 4,9 C 4,4 C 3,9 C 98 % 1029,2 hPa 0,0 l/m 0 min 0 min 0 W/m 19,3 km/h (3 Bft) 95,74 %
06.01.2019 06:00 4,9 C 4,4 C 3,9 C 98 % 1029,2 hPa 0,0 l/m 0 min 0 min 0 W/m 16,1 km/h (3 Bft) 95,74 %
06.01.2019 06:02 4,9 C 4,4 C 3,9 C 98 % 1029,2 hPa 0,0 l/m 0 min 0 min 0 W/m 12,9 km/h (3 Bft) 92,45 %
06.01.2019 06:04 4,9 C 4,4 C 3,9 C 98 % 1029,2 hPa 0,0 l/m 0 min 0 min 0 W/m 19,3 km/h (3 Bft) 93,62 %
06.01.2019 06:08 4,9 C 4,4 C 3,9 C 98 % 1029,2 hPa 0,0 l/m 0 min 0 min 0 W/m 16,1 km/h (3 Bft) 94,62 %
06.01.2019 06:10 4,9 C 4,4 C 3,9 C 98 % 1029,1 hPa 0,0 l/m 0 min 0 min 0 W/m 12,9 km/h (3 Bft) 95,74 %
06.01.2019 06:12 4,9 C 4,4 C 3,9 C 98 % 1029,2 hPa 0,0 l/m 0 min 0 min 0 W/m 19,3 km/h (3 Bft) 93,62 %
06.01.2019 06:14 4,9 C 4,4 C 3,9 C 98 % 1029,1 hPa 0,0 l/m 0 min 0 min 0 W/m 12,9 km/h (3 Bft) 91,49 %
06.01.2019 06:16 4,9 C 4,4 C 3,9 C 98 % 1029,1 hPa 0,0 l/m 0 min 0 min 0 W/m 12,9 km/h (3 Bft) 95,74 %
06.01.2019 06:18 4,9 C 4,4 C 3,9 C 98 % 1029,1 hPa 0,0 l/m 0 min 0 min 0 W/m 19,3 km/h (3 Bft) 97,87 %
06.01.2019 06:20 4,9 C 4,4 C 3,9 C 98 % 1029,1 hPa 0,0 l/m 0 min 0 min 0 W/m 22,5 km/h (4 Bft) 91,30 %
06.01.2019 06:22 4,9 C 4,4 C 3,9 C 98 % 1029,2 hPa 0,0 l/m 0 min 0 min 0 W/m 16,1 km/h (3 Bft) 95,74 %
06.01.2019 06:24 4,9 C 4,4 C 3,9 C 98 % 1029,2 hPa 0,0 l/m 0 min 0 min 0 W/m 12,9 km/h (3 Bft) 87,23 %
06.01.2019 06:26 4,9 C 4,4 C 3,9 C 98 % 1029,3 hPa 0,0 l/m 0 min 0 min 0 W/m 12,9 km/h (3 Bft) 93,62 %
06.01.2019 06:28 4,9 C 4,4 C 3,9 C 98 % 1029,2 hPa 0,0 l/m 0 min 0 min 0 W/m 12,9 km/h (3 Bft) 95,74 %
06.01.2019 06:30 4,9 C 4,4 C 3,9 C 98 % 1029,2 hPa 0,0 l/m 0 min 0 min 0 W/m 25,7 km/h (4 Bft) 95,74 %
06.01.2019 06:32 4,9 C 4,4 C 3,9 C 98 % 1029,3 hPa 0,0 l/m 0 min 0 min 0 W/m 22,5 km/h (4 Bft) 95,65 %
06.01.2019 06:34 4,9 C 4,4 C 3,9 C 98 % 1029,2 hPa 0,0 l/m 0 min 0 min 0 W/m 12,9 km/h (3 Bft) 93,62 %
06.01.2019 06:36 4,9 C 4,4 C 3,9 C 98 % 1029,2 hPa 0,0 l/m 0 min 0 min 0 W/m 9,7 km/h (2 Bft) 96,61 %
06.01.2019 06:38 4,9 C 4,4 C 3,9 C 98 % 1029,2 hPa 0,0 l/m 0 min 0 min 0 W/m 16,1 km/h (3 Bft) 94,29 %
06.01.2019 06:40 4,9 C 4,4 C 3,9 C 98 % 1029,3 hPa 0,0 l/m 0 min 0 min 0 W/m 12,9 km/h (3 Bft) 95,74 %
06.01.2019 06:42 4,9 C 4,4 C 3,9 C 98 % 1029,3 hPa 0,0 l/m 0 min 0 min 0 W/m 9,7 km/h (2 Bft) 95,74 %
06.01.2019 06:44 4,9 C 4,4 C 3,9 C 98 % 1029,2 hPa 0,0 l/m 0 min 0 min 0 W/m 9,7 km/h (2 Bft) 97,83 %
06.01.2019 06:46 4,9 C 4,4 C 3,9 C 98 % 1029,3 hPa 0,0 l/m 0 min 0 min 0 W/m 16,1 km/h (3 Bft) 95,74 %
06.01.2019 06:48 4,9 C 4,4 C 3,9 C 98 % 1029,3 hPa 0,0 l/m 0 min 0 min 0 W/m 12,9 km/h (3 Bft) 95,74 %
06.01.2019 06:50 4,9 C 4,4 C 3,9 C 98 % 1029,3 hPa 0,0 l/m 0 min 0 min 0 W/m 12,9 km/h (3 Bft) 97,87 %
06.01.2019 06:52 4,8 C 4,4 C 3,9 C 98 % 1029,3 hPa 0,0 l/m 0 min 0 min 0 W/m 12,9 km/h (3 Bft) 97,87 %
06.01.2019 06:54 4,8 C 4,4 C 3,9 C 98 % 1029,3 hPa 0,0 l/m 0 min 0 min 0 W/m 16,1 km/h (3 Bft) 95,74 %
06.01.2019 06:56 4,8 C 4,4 C 3,9 C 98 % 1029,4 hPa 0,0 l/m 0 min 0 min 0 W/m 16,1 km/h (3 Bft) 95,65 %
06.01.2019 06:58 4,8 C 4,4 C 3,9 C 98 % 1029,4 hPa 0,0 l/m 0 min 0 min 0 W/m 12,9 km/h (3 Bft) 93,62 %
06.01.2019 07:00 4,8 C 4,4 C 3,9 C 98 % 1029,4 hPa 0,0 l/m 0 min 0 min 0 W/m 12,9 km/h (3 Bft) 97,87 %
06.01.2019 07:02 4,8 C 4,4 C 3,9 C 98 % 1029,4 hPa 0,0 l/m 0 min 0 min 0 W/m 16,1 km/h (3 Bft) 95,74 %
06.01.2019 07:04 4,8 C 4,4 C 3,9 C 98 % 1029,5 hPa 0,0 l/m 0 min 0 min 0 W/m 12,9 km/h (3 Bft) 97,87 %
06.01.2019 07:06 4,8 C 4,4 C 3,9 C 98 % 1029,5 hPa 0,0 l/m 0 min 0 min 0 W/m 12,9 km/h (3 Bft) 98,28 %
06.01.2019 07:08 4,8 C 4,4 C 3,9 C 98 % 1029,5 hPa 0,0 l/m 0 min 0 min 0 W/m 12,9 km/h (3 Bft) 97,14 %
06.01.2019 07:10 4,8 C 4,4 C 3,9 C 98 % 1029,5 hPa 0,0 l/m 0 min 0 min 0 W/m 12,9 km/h (3 Bft) 100,00 %
06.01.2019 07:12 4,8 C 4,4 C 3,9 C 98 % 1029,5 hPa 0,0 l/m 0 min 0 min 0 W/m 9,7 km/h (2 Bft) 100,00 %
06.01.2019 07:14 4,8 C 4,4 C 3,9 C 98 % 1029,6 hPa 0,0 l/m 0 min 0 min 0 W/m 12,9 km/h (3 Bft) 100,00 %
06.01.2019 07:16 4,8 C 4,4 C 3,9 C 98 % 1029,6 hPa 0,0 l/m 0 min 0 min 0 W/m 12,9 km/h (3 Bft) 100,00 %
06.01.2019 07:18 4,8 C 4,4 C 3,9 C 98 % 1029,6 hPa 0,0 l/m 0 min 0 min 0 W/m 16,1 km/h (3 Bft) 100,00 %
06.01.2019 07:20 4,8 C 4,4 C 3,9 C 98 % 1029,7 hPa 0,0 l/m 0 min 0 min 0 W/m 9,7 km/h (2 Bft) 100,00 %
06.01.2019 07:22 4,8 C 4,4 C 3,9 C 98 % 1029,7 hPa 0,0 l/m 0 min 0 min 0 W/m 12,9 km/h (3 Bft) 100,00 %
06.01.2019 07:24 4,8 C 4,4 C 3,9 C 98 % 1029,6 hPa 0,0 l/m 0 min 0 min 0 W/m 9,7 km/h (2 Bft) 100,00 %
06.01.2019 07:26 4,8 C 4,4 C 3,9 C 98 % 1029,7 hPa 0,0 l/m 0 min 0 min 0 W/m 16,1 km/h (3 Bft) 100,00 %
06.01.2019 07:28 4,8 C 4,4 C 3,9 C 98 % 1029,7 hPa 0,0 l/m 0 min 0 min 0 W/m 12,9 km/h (3 Bft) 100,00 %
06.01.2019 07:30 4,8 C 4,4 C 3,9 C 98 % 1029,7 hPa 0,0 l/m 0 min 0 min 0 W/m 12,9 km/h (3 Bft) 100,00 %
06.01.2019 07:32 4,8 C 4,4 C 3,9 C 98 % 1029,7 hPa 0,0 l/m 0 min 0 min 0 W/m 12,9 km/h (3 Bft) 100,00 %
06.01.2019 07:34 4,8 C 4,4 C 3,3 C 98 % 1029,7 hPa 0,0 l/m 0 min 0 min 0 W/m 19,3 km/h (3 Bft) 97,87 %
06.01.2019 07:36 4,8 C 4,4 C 3,3 C 98 % 1029,7 hPa 0,0 l/m 0 min 0 min 0 W/m 12,9 km/h (3 Bft) 100,00 %
06.01.2019 07:38 4,8 C 3,9 C 3,9 C 98 % 1029,7 hPa 0,0 l/m 0 min 0 min 0 W/m 9,7 km/h (2 Bft) 97,37 %
06.01.2019 07:40 4,8 C 3,9 C 3,9 C 98 % 1029,8 hPa 0,0 l/m 0 min 0 min 0 W/m 12,9 km/h (3 Bft) 100,00 %
06.01.2019 07:42 4,8 C 3,9 C 3,3 C 98 % 1029,8 hPa 0,0 l/m 0 min 0 min 0 W/m 12,9 km/h (3 Bft) 100,00 %
06.01.2019 07:44 4,8 C 3,9 C 3,3 C 98 % 1029,8 hPa 0,0 l/m 0 min 0 min 0 W/m 6,4 km/h (2 Bft) 100,00 %
06.01.2019 07:46 4,8 C 3,9 C 3,3 C 98 % 1029,8 hPa 0,0 l/m 0 min 0 min 0 W/m 12,9 km/h (3 Bft) 97,87 %
06.01.2019 07:48 4,8 C 3,9 C 3,3 C 98 % 1029,8 hPa 0,0 l/m 0 min 2 min 0 W/m 16,1 km/h (3 Bft) 100,00 %
06.01.2019 07:50 4,8 C 3,9 C 3,3 C 98 % 1029,9 hPa 0,0 l/m 0 min 2 min 0 W/m 6,4 km/h (2 Bft) 100,00 %
06.01.2019 07:52 4,8 C 3,9 C 3,3 C 98 % 1029,9 hPa 0,0 l/m 0 min 2 min 0 W/m 12,9 km/h (3 Bft) 100,00 %
06.01.2019 07:54 4,8 C 3,9 C 3,3 C 98 % 1029,8 hPa 0,0 l/m 0 min 2 min 0 W/m 12,9 km/h (3 Bft) 97,83 %
06.01.2019 07:56 4,8 C 3,9 C 3,3 C 98 % 1029,8 hPa 0,0 l/m 0 min 2 min 0 W/m 16,1 km/h (3 Bft) 100,00 %
06.01.2019 07:58 4,7 C 3,9 C 3,3 C 98 % 1030,0 hPa 0,0 l/m 0 min 2 min 0 W/m 19,3 km/h (3 Bft) 100,00 %
06.01.2019 08:00 4,7 C 3,9 C 3,3 C 98 % 1029,9 hPa 0,0 l/m 0 min 2 min 0 W/m 9,7 km/h (2 Bft) 100,00 %
06.01.2019 08:02 4,7 C 3,9 C 3,3 C 98 % 1029,9 hPa 0,0 l/m 0 min 0 min 0 W/m 9,7 km/h (2 Bft) 100,00 %
06.01.2019 08:04 4,7 C 3,9 C 3,3 C 98 % 1030,0 hPa 0,0 l/m 0 min 0 min 0 W/m 9,7 km/h (2 Bft) 100,00 %
06.01.2019 08:06 4,7 C 3,9 C 3,3 C 98 % 1029,9 hPa 0,0 l/m 0 min 0 min 0 W/m 16,1 km/h (3 Bft) 97,83 %
06.01.2019 08:08 4,7 C 3,9 C 3,3 C 98 % 1030,0 hPa 0,0 l/m 0 min 0 min 0 W/m 12,9 km/h (3 Bft) 100,00 %
06.01.2019 08:10 4,7 C 3,9 C 3,3 C 98 % 1030,0 hPa 0,0 l/m 0 min 0 min 0 W/m 12,9 km/h (3 Bft) 100,00 %
06.01.2019 08:12 4,7 C 3,9 C 3,3 C 98 % 1029,9 hPa 0,0 l/m 0 min 0 min 0 W/m 12,9 km/h (3 Bft) 100,00 %
06.01.2019 08:14 4,7 C 3,9 C 3,3 C 98 % 1029,9 hPa 0,0 l/m 0 min 0 min 0 W/m 9,7 km/h (2 Bft) 100,00 %
06.01.2019 08:16 4,7 C 3,9 C 3,3 C 98 % 1030,0 hPa 0,0 l/m 0 min 0 min 0 W/m 12,9 km/h (3 Bft) 97,87 %
06.01.2019 08:18 4,7 C 3,9 C 3,3 C 98 % 1029,9 hPa 0,0 l/m 0 min 0 min 0 W/m 9,7 km/h (2 Bft) 97,83 %
06.01.2019 08:20 4,7 C 3,9 C 3,3 C 98 % 1029,9 hPa 0,0 l/m 0 min 0 min 0 W/m 12,9 km/h (3 Bft) 95,74 %
06.01.2019 08:22 4,7 C 3,9 C 3,3 C 98 % 1030,0 hPa 0,0 l/m 0 min 0 min 0 W/m 12,9 km/h (3 Bft) 95,74 %
06.01.2019 08:24 4,7 C 3,9 C 3,3 C 98 % 1030,0 hPa 0,0 l/m 0 min 0 min 0 W/m 19,3 km/h (3 Bft) 100,00 %
06.01.2019 08:26 4,7 C 3,9 C 3,3 C 98 % 1030,0 hPa 0,0 l/m 0 min 0 min 0 W/m 12,9 km/h (3 Bft) 97,87 %
06.01.2019 08:28 4,7 C 3,9 C 3,3 C 98 % 1030,1 hPa 0,0 l/m 0 min 0 min 0 W/m 12,9 km/h (3 Bft) 97,87 %
06.01.2019 08:30 4,7 C 3,9 C 3,3 C 98 % 1030,1 hPa 0,0 l/m 0 min 0 min 0 W/m 12,9 km/h (3 Bft) 97,83 %
06.01.2019 08:32 4,7 C 3,9 C 3,3 C 98 % 1030,1 hPa 0,0 l/m 0 min 0 min 0 W/m 9,7 km/h (2 Bft) 97,87 %
06.01.2019 08:34 4,7 C 3,9 C 3,3 C 98 % 1030,1 hPa 0,0 l/m 0 min 0 min 0 W/m 12,9 km/h (3 Bft) 97,87 %
06.01.2019 08:36 4,7 C 3,9 C 3,3 C 98 % 1030,2 hPa 0,0 l/m 0 min 0 min 0 W/m 12,9 km/h (3 Bft) 95,74 %
06.01.2019 08:38 4,7 C 3,9 C 3,3 C 98 % 1030,2 hPa 0,0 l/m 0 min 0 min 0 W/m 9,7 km/h (2 Bft) 97,87 %
06.01.2019 08:40 4,7 C 3,9 C 3,3 C 98 % 1030,2 hPa 0,0 l/m 0 min 0 min 0 W/m 16,1 km/h (3 Bft) 95,74 %
06.01.2019 08:42 4,7 C 3,9 C 3,3 C 98 % 1030,2 hPa 0,0 l/m 0 min 0 min 0 W/m 16,1 km/h (3 Bft) 97,83 %
06.01.2019 08:44 4,7 C 3,9 C 3,3 C 98 % 1030,2 hPa 0,0 l/m 0 min 0 min 0 W/m 12,9 km/h (3 Bft) 95,74 %
06.01.2019 08:46 4,7 C 3,9 C 3,3 C 98 % 1030,3 hPa 0,0 l/m 0 min 0 min 0 W/m 9,7 km/h (2 Bft) 97,87 %
06.01.2019 08:48 4,7 C 3,9 C 3,3 C 98 % 1030,3 hPa 0,0 l/m 0 min 0 min 0 W/m 12,9 km/h (3 Bft) 97,87 %
06.01.2019 08:50 4,7 C 3,9 C 3,3 C 98 % 1030,3 hPa 0,0 l/m 0 min 0 min 0 W/m 19,3 km/h (3 Bft) 97,87 %
06.01.2019 08:52 4,7 C 3,9 C 3,3 C 98 % 1030,4 hPa 0,0 l/m 0 min 0 min 3 W/m 6,4 km/h (2 Bft) 97,87 %
06.01.2019 08:54 4,7 C 3,9 C 3,3 C 98 % 1030,4 hPa 0,0 l/m 0 min 0 min 5 W/m 16,1 km/h (3 Bft) 95,65 %
06.01.2019 08:56 4,7 C 3,9 C 3,3 C 98 % 1030,3 hPa 0,0 l/m 0 min 0 min 5 W/m 9,7 km/h (2 Bft) 97,87 %
06.01.2019 08:58 4,7 C 3,9 C 3,3 C 98 % 1030,3 hPa 0,0 l/m 0 min 0 min 7 W/m 16,1 km/h (3 Bft) 97,87 %
06.01.2019 09:00 4,7 C 3,9 C 3,3 C 98 % 1030,4 hPa 0,0 l/m 0 min 0 min 7 W/m 12,9 km/h (3 Bft) 97,87 %
06.01.2019 09:02 4,7 C 3,9 C 3,3 C 98 % 1030,4 hPa 0,0 l/m 0 min 0 min 7 W/m 12,9 km/h (3 Bft) 95,74 %
06.01.2019 09:04 4,7 C 3,9 C 3,3 C 98 % 1030,4 hPa 0,0 l/m 0 min 0 min 8 W/m 9,7 km/h (2 Bft) 97,87 %
06.01.2019 09:06 4,7 C 3,9 C 3,3 C 98 % 1030,4 hPa 0,0 l/m 0 min 0 min 9 W/m 9,7 km/h (2 Bft) 93,48 %
06.01.2019 09:08 4,7 C 3,9 C 3,3 C 98 % 1030,4 hPa 0,0 l/m 0 min 0 min 9 W/m 12,9 km/h (3 Bft) 95,74 %
06.01.2019 09:10 4,7 C 3,9 C 3,3 C 98 % 1030,4 hPa 0,0 l/m 0 min 0 min 9 W/m 6,4 km/h (2 Bft) 95,74 %
06.01.2019 09:12 4,7 C 3,9 C 3,3 C 98 % 1030,4 hPa 0,0 l/m 0 min 0 min 9 W/m 9,7 km/h (2 Bft) 95,74 %
06.01.2019 09:14 4,7 C 3,9 C 3,3 C 98 % 1030,4 hPa 0,0 l/m 0 min 0 min 11 W/m 9,7 km/h (2 Bft) 95,74 %
06.01.2019 09:16 4,7 C 3,9 C 3,3 C 98 % 1030,4 hPa 0,0 l/m 0 min 0 min 10 W/m 12,9 km/h (3 Bft) 95,74 %
06.01.2019 09:18 4,7 C 3,9 C 3,3 C 98 % 1030,4 hPa 0,0 l/m 0 min 0 min 9 W/m 12,9 km/h (3 Bft) 97,83 %
06.01.2019 09:20 4,7 C 3,9 C 3,3 C 98 % 1030,5 hPa 0,0 l/m 0 min 0 min 9 W/m 12,9 km/h (3 Bft) 91,49 %
06.01.2019 09:22 4,7 C 3,9 C 3,3 C 98 % 1030,5 hPa 0,0 l/m 0 min 0 min 9 W/m 9,7 km/h (2 Bft) 95,74 %
06.01.2019 09:24 4,7 C 3,9 C 3,3 C 98 % 1030,5 hPa 0,0 l/m 0 min 0 min 9 W/m 9,7 km/h (2 Bft) 95,74 %
06.01.2019 09:26 4,7 C 3,9 C 3,3 C 98 % 1030,5 hPa 0,0 l/m 0 min 0 min 11 W/m 12,9 km/h (3 Bft) 95,74 %
06.01.2019 09:28 4,7 C 3,9 C 3,3 C 98 % 1030,5 hPa 0,0 l/m 0 min 0 min 10 W/m 9,7 km/h (2 Bft) 95,74 %
06.01.2019 09:30 4,7 C 3,9 C 3,3 C 98 % 1030,5 hPa 0,0 l/m 0 min 0 min 10 W/m 9,7 km/h (2 Bft) 95,65 %
06.01.2019 09:32 4,7 C 3,9 C 3,9 C 98 % 1030,5 hPa 0,0 l/m 0 min 0 min 11 W/m 12,9 km/h (3 Bft) 95,74 %
06.01.2019 09:34 4,7 C 3,9 C 3,9 C 98 % 1030,5 hPa 0,0 l/m 0 min 0 min 12 W/m 12,9 km/h (3 Bft) 95,74 %
06.01.2019 09:36 4,7 C 3,9 C 3,9 C 98 % 1030,6 hPa 0,0 l/m 0 min 0 min 13 W/m 16,1 km/h (3 Bft) 93,62 %
06.01.2019 09:38 4,7 C 3,9 C 3,9 C 98 % 1030,6 hPa 0,0 l/m 0 min 0 min 14 W/m 9,7 km/h (2 Bft) 97,67 %
06.01.2019 09:40 4,7 C 3,9 C 3,9 C 98 % 1030,7 hPa 0,0 l/m 0 min 0 min 15 W/m 6,4 km/h (2 Bft) 93,48 %
06.01.2019 09:42 4,7 C 3,9 C 3,9 C 98 % 1030,7 hPa 0,0 l/m 0 min 0 min 18 W/m 6,4 km/h (2 Bft) 95,74 %
06.01.2019 09:44 4,7 C 4,4 C 3,9 C 98 % 1030,7 hPa 0,0 l/m 0 min 0 min 18 W/m 6,4 km/h (2 Bft) 93,62 %
06.01.2019 09:46 4,7 C 4,4 C 3,9 C 98 % 1030,7 hPa 0,0 l/m 0 min 2 min 19 W/m 9,7 km/h (2 Bft) 95,74 %
06.01.2019 09:48 4,7 C 4,4 C 3,9 C 98 % 1030,6 hPa 0,0 l/m 0 min 0 min 21 W/m 9,7 km/h (2 Bft) 95,74 %
06.01.2019 09:50 4,7 C 4,4 C 3,9 C 98 % 1030,7 hPa 0,0 l/m 0 min 2 min 23 W/m 6,4 km/h (2 Bft) 95,65 %
06.01.2019 09:52 4,7 C 4,4 C 3,9 C 98 % 1030,6 hPa 0,2 l/m 0 min 0 min 21 W/m 9,7 km/h (2 Bft) 95,74 %
06.01.2019 09:54 4,7 C 4,4 C 3,9 C 98 % 1030,7 hPa 0,0 l/m 0 min 0 min 26 W/m 9,7 km/h (2 Bft) 97,87 %
06.01.2019 09:56 4,7 C 4,4 C 3,9 C 98 % 1030,7 hPa 0,0 l/m 0 min 0 min 28 W/m 12,9 km/h (3 Bft) 97,87 %
06.01.2019 09:58 4,7 C 4,4 C 3,9 C 98 % 1030,6 hPa 0,0 l/m 0 min 0 min 31 W/m 12,9 km/h (3 Bft) 97,87 %
06.01.2019 10:00 4,7 C 4,4 C 3,9 C 98 % 1030,6 hPa 0,0 l/m 0 min 0 min 31 W/m 9,7 km/h (2 Bft) 97,87 %
06.01.2019 10:02 4,8 C 4,4 C 3,9 C 98 % 1030,6 hPa 0,0 l/m 0 min 0 min 32 W/m 9,7 km/h (2 Bft) 95,65 %
06.01.2019 10:04 4,8 C 4,4 C 3,9 C 98 % 1030,7 hPa 0,0 l/m 0 min 0 min 26 W/m 9,7 km/h (2 Bft) 95,74 %
06.01.2019 10:06 4,8 C 4,4 C 3,9 C 98 % 1030,7 hPa 0,0 l/m 0 min 0 min 26 W/m 12,9 km/h (3 Bft) 96,61 %
06.01.2019 10:08 4,8 C 4,4 C 3,9 C 98 % 1030,7 hPa 0,0 l/m 0 min 0 min 32 W/m 16,1 km/h (3 Bft) 100,00 %
06.01.2019 10:10 4,8 C 4,4 C 3,9 C 98 % 1030,7 hPa 0,0 l/m 0 min 0 min 35 W/m 6,4 km/h (2 Bft) 95,74 %
06.01.2019 10:12 4,8 C 4,4 C 3,9 C 98 % 1030,6 hPa 0,0 l/m 0 min 0 min 46 W/m 12,9 km/h (3 Bft) 97,87 %
06.01.2019 10:14 4,8 C 4,4 C 3,9 C 98 % 1030,7 hPa 0,0 l/m 0 min 0 min 40 W/m 16,1 km/h (3 Bft) 100,00 %
06.01.2019 10:16 4,8 C 4,4 C 3,9 C 98 % 1030,7 hPa 0,0 l/m 0 min 0 min 37 W/m 6,4 km/h (2 Bft) 100,00 %
06.01.2019 10:18 4,8 C 4,4 C 3,9 C 98 % 1030,7 hPa 0,0 l/m 0 min 0 min 40 W/m 16,1 km/h (3 Bft) 100,00 %
06.01.2019 10:20 4,9 C 4,4 C 3,9 C 98 % 1030,7 hPa 0,0 l/m 0 min 0 min 40 W/m 16,1 km/h (3 Bft) 100,00 %
06.01.2019 10:22 4,9 C 4,4 C 3,9 C 99 % 1030,7 hPa 0,0 l/m 0 min 0 min 39 W/m 6,4 km/h (2 Bft) 100,00 %
06.01.2019 10:24 4,9 C 4,4 C 3,9 C 99 % 1030,7 hPa 0,0 l/m 0 min 0 min 35 W/m 16,1 km/h (3 Bft) 100,00 %
06.01.2019 10:26 4,9 C 4,4 C 3,9 C 99 % 1030,7 hPa 0,0 l/m 0 min 0 min 34 W/m 12,9 km/h (3 Bft) 97,83 %
06.01.2019 10:28 4,9 C 4,4 C 3,9 C 99 % 1030,8 hPa 0,0 l/m 0 min 0 min 37 W/m 16,1 km/h (3 Bft) 97,87 %
06.01.2019 10:30 4,9 C 4,4 C 3,9 C 99 % 1030,8 hPa 0,0 l/m 0 min 0 min 37 W/m 16,1 km/h (3 Bft) 100,00 %
06.01.2019 10:32 5,0 C 4,4 C 3,9 C 99 % 1030,8 hPa 0,0 l/m 0 min 0 min 36 W/m 12,9 km/h (3 Bft) 100,00 %
06.01.2019 10:34 5,0 C 4,4 C 3,9 C 99 % 1030,8 hPa 0,0 l/m 0 min 0 min 43 W/m 12,9 km/h (3 Bft) 100,00 %
06.01.2019 10:36 5,0 C 4,4 C 3,9 C 99 % 1030,8 hPa 0,0 l/m 0 min 0 min 47 W/m 9,7 km/h (2 Bft) 100,00 %
06.01.2019 10:38 5,0 C 4,4 C 3,9 C 99 % 1030,8 hPa 0,0 l/m 0 min 0 min 46 W/m 9,7 km/h (2 Bft) 100,00 %
06.01.2019 10:40 5,1 C 4,4 C 3,9 C 99 % 1030,8 hPa 0,0 l/m 0 min 0 min 50 W/m 16,1 km/h (3 Bft) 100,00 %
06.01.2019 10:42 5,1 C 4,4 C 4,4 C 99 % 1030,9 hPa 0,0 l/m 0 min 0 min 47 W/m 6,4 km/h (2 Bft) 100,00 %
06.01.2019 10:44 5,1 C 5,0 C 4,4 C 99 % 1030,9 hPa 0,0 l/m 0 min 0 min 46 W/m 6,4 km/h (2 Bft) 95,74 %
06.01.2019 10:46 5,1 C 5,0 C 4,4 C 99 % 1030,9 hPa 0,0 l/m 0 min 0 min 46 W/m 6,4 km/h (2 Bft) 97,87 %
06.01.2019 10:48 5,1 C 5,0 C 4,4 C 99 % 1030,9 hPa 0,0 l/m 0 min 0 min 44 W/m 12,9 km/h (3 Bft) 97,83 %
06.01.2019 10:50 5,1 C 5,0 C 4,4 C 99 % 1030,9 hPa 0,0 l/m 0 min 0 min 46 W/m 9,7 km/h (2 Bft) 97,87 %
06.01.2019 10:52 5,1 C 5,0 C 4,4 C 99 % 1030,9 hPa 0,0 l/m 0 min 0 min 43 W/m 6,4 km/h (2 Bft) 97,87 %
06.01.2019 10:54 5,1 C 5,0 C 4,4 C 99 % 1031,0 hPa 0,0 l/m 0 min 0 min 45 W/m 9,7 km/h (2 Bft) 97,87 %
06.01.2019 10:56 5,1 C 4,4 C 4,4 C 99 % 1031,0 hPa 0,0 l/m 0 min 0 min 39 W/m 6,4 km/h (2 Bft) 95,74 %
06.01.2019 10:58 5,2 C 5,0 C 4,4 C 99 % 1031,0 hPa 0,0 l/m 0 min 0 min 46 W/m 6,4 km/h (2 Bft) 97,87 %
06.01.2019 11:00 5,1 C 5,0 C 4,4 C 99 % 1031,0 hPa 0,0 l/m 0 min 0 min 42 W/m 9,7 km/h (2 Bft) 95,65 %
06.01.2019 11:02 5,1 C 5,0 C 4,4 C 99 % 1031,0 hPa 0,0 l/m 0 min 0 min 37 W/m 6,4 km/h (2 Bft) 97,87 %
06.01.2019 11:04 5,2 C 5,0 C 4,4 C 99 % 1031,0 hPa 0,0 l/m 0 min 0 min 35 W/m 6,4 km/h (2 Bft) 97,87 %
06.01.2019 11:06 5,2 C 5,0 C 4,4 C 99 % 1031,1 hPa 0,0 l/m 0 min 0 min 45 W/m 9,7 km/h (2 Bft) 97,87 %
06.01.2019 11:08 5,2 C 5,0 C 4,4 C 99 % 1031,0 hPa 0,0 l/m 0 min 0 min 53 W/m 9,7 km/h (2 Bft) 93,62 %
06.01.2019 11:10 5,2 C 5,0 C 4,4 C 99 % 1031,0 hPa 0,0 l/m 0 min 0 min 47 W/m 9,7 km/h (2 Bft) 97,87 %
06.01.2019 11:12 5,2 C 5,0 C 4,4 C 99 % 1031,0 hPa 0,0 l/m 0 min 0 min 40 W/m 12,9 km/h (3 Bft) 91,49 %
06.01.2019 11:14 5,2 C 5,0 C 4,4 C 99 % 1031,0 hPa 0,0 l/m 0 min 0 min 49 W/m 12,9 km/h (3 Bft) 97,83 %
06.01.2019 11:16 5,2 C 5,0 C 4,4 C 99 % 1031,0 hPa 0,0 l/m 0 min 0 min 59 W/m 9,7 km/h (2 Bft) 97,87 %
06.01.2019 11:18 5,2 C 5,0 C 4,4 C 99 % 1031,0 hPa 0,0 l/m 0 min 0 min 62 W/m 6,4 km/h (2 Bft) 95,74 %
06.01.2019 11:20 5,2 C 5,0 C 4,4 C 99 % 1031,0 hPa 0,0 l/m 0 min 0 min 65 W/m 9,7 km/h (2 Bft) 95,74 %
06.01.2019 11:22 5,2 C 5,0 C 4,4 C 99 % 1031,0 hPa 0,0 l/m 0 min 0 min 64 W/m 16,1 km/h (3 Bft) 97,87 %
06.01.2019 11:24 5,2 C 5,0 C 4,4 C 99 % 1031,0 hPa 0,0 l/m 0 min 0 min 59 W/m 9,7 km/h (2 Bft) 97,87 %
06.01.2019 11:26 5,2 C 5,0 C 4,4 C 99 % 1031,0 hPa 0,0 l/m 0 min 0 min 68 W/m 12,9 km/h (3 Bft) 100,00 %
06.01.2019 11:28 5,2 C 5,0 C 4,4 C 99 % 1031,0 hPa 0,0 l/m 0 min 0 min 86 W/m 9,7 km/h (2 Bft) 100,00 %
06.01.2019 11:30 5,3 C 5,0 C 4,4 C 99 % 1031,0 hPa 0,0 l/m 0 min 0 min 96 W/m 9,7 km/h (2 Bft) 97,87 %
06.01.2019 11:32 5,3 C 5,6 C 4,4 C 99 % 1031,0 hPa 0,0 l/m 0 min 0 min 89 W/m 12,9 km/h (3 Bft) 100,00 %
06.01.2019 11:34 5,3 C 5,6 C 4,4 C 99 % 1031,0 hPa 0,0 l/m 0 min 0 min 77 W/m 9,7 km/h (2 Bft) 100,00 %
06.01.2019 11:36 5,3 C 5,6 C 4,4 C 99 % 1031,0 hPa 0,0 l/m 0 min 0 min 79 W/m 9,7 km/h (2 Bft) 97,83 %
06.01.2019 11:38 5,4 C 5,6 C 4,4 C 99 % 1031,0 hPa 0,0 l/m 0 min 0 min 72 W/m 9,7 km/h (2 Bft) 97,87 %
06.01.2019 11:40 5,4 C 5,6 C 4,4 C 99 % 1030,9 hPa 0,0 l/m 0 min 0 min 78 W/m 12,9 km/h (3 Bft) 97,87 %
06.01.2019 11:42 5,4 C 5,6 C 4,4 C 99 % 1031,0 hPa 0,0 l/m 0 min 0 min 82 W/m 12,9 km/h (3 Bft) 100,00 %
06.01.2019 11:44 5,4 C 5,6 C 4,4 C 99 % 1031,0 hPa 0,0 l/m 0 min 0 min 88 W/m 9,7 km/h (2 Bft) 100,00 %
06.01.2019 11:46 5,4 C 5,6 C 5,0 C 99 % 1031,0 hPa 0,0 l/m 0 min 0 min 98 W/m 12,9 km/h (3 Bft) 100,00 %
06.01.2019 11:48 5,5 C 5,6 C 5,0 C 99 % 1031,0 hPa 0,0 l/m 0 min 0 min 104 W/m 9,7 km/h (2 Bft) 97,83 %
06.01.2019 11:50 5,5 C 5,6 C 5,0 C 99 % 1031,0 hPa 0,0 l/m 0 min 0 min 102 W/m 12,9 km/h (3 Bft) 100,00 %
06.01.2019 11:52 5,5 C 5,6 C 5,0 C 99 % 1031,0 hPa 0,0 l/m 0 min 0 min 87 W/m 9,7 km/h (2 Bft) 97,87 %
06.01.2019 11:54 5,5 C 5,6 C 5,0 C 99 % 1031,0 hPa 0,0 l/m 0 min 0 min 90 W/m 6,4 km/h (2 Bft) 100,00 %
06.01.2019 11:56 5,6 C 5,6 C 5,0 C 99 % 1031,0 hPa 0,0 l/m 0 min 0 min 97 W/m 19,3 km/h (3 Bft) 100,00 %
06.01.2019 11:58 5,6 C 5,6 C 5,0 C 99 % 1031,0 hPa 0,0 l/m 0 min 0 min 97 W/m 12,9 km/h (3 Bft) 97,87 %
06.01.2019 12:00 5,6 C 5,6 C 5,0 C 99 % 1031,0 hPa 0,0 l/m 0 min 0 min 97 W/m 9,7 km/h (2 Bft) 100,00 %
06.01.2019 12:02 5,6 C 5,6 C 5,0 C 99 % 1030,9 hPa 0,0 l/m 0 min 0 min 112 W/m 12,9 km/h (3 Bft) 97,22 %
06.01.2019 12:04 5,6 C 5,6 C 5,0 C 99 % 1031,0 hPa 0,0 l/m 0 min 0 min 107 W/m 19,3 km/h (3 Bft) 97,83 %
06.01.2019 12:08 5,6 C 6,1 C 5,0 C 99 % 1031,0 hPa 0,0 l/m 0 min 0 min 109 W/m 12,9 km/h (3 Bft) 97,87 %
06.01.2019 12:10 5,6 C 6,1 C 5,0 C 99 % 1031,0 hPa 0,0 l/m 0 min 0 min 111 W/m 9,7 km/h (2 Bft) 95,74 %
06.01.2019 12:12 5,7 C 6,1 C 5,0 C 99 % 1031,0 hPa 0,0 l/m 0 min 0 min 117 W/m 12,9 km/h (3 Bft) 97,87 %
06.01.2019 12:14 5,7 C 6,1 C 5,0 C 99 % 1031,0 hPa 0,0 l/m 0 min 0 min 119 W/m 9,7 km/h (2 Bft) 97,87 %
06.01.2019 12:16 5,7 C 6,1 C 5,0 C 99 % 1031,0 hPa 0,0 l/m 0 min 0 min 120 W/m 9,7 km/h (2 Bft) 97,83 %
06.01.2019 12:18 5,7 C 6,1 C 5,0 C 99 % 1031,0 hPa 0,0 l/m 0 min 0 min 96 W/m 16,1 km/h (3 Bft) 95,74 %
06.01.2019 12:20 5,7 C 6,1 C 5,0 C 99 % 1031,1 hPa 0,0 l/m 0 min 0 min 100 W/m 12,9 km/h (3 Bft) 95,74 %
06.01.2019 12:22 5,8 C 6,1 C 5,0 C 99 % 1031,1 hPa 0,0 l/m 0 min 0 min 84 W/m 12,9 km/h (3 Bft) 95,74 %
06.01.2019 12:24 5,8 C 6,1 C 5,0 C 99 % 1031,0 hPa 0,0 l/m 0 min 0 min 77 W/m 12,9 km/h (3 Bft) 95,74 %
06.01.2019 12:26 5,7 C 5,6 C 5,0 C 99 % 1031,0 hPa 0,0 l/m 0 min 0 min 71 W/m 9,7 km/h (2 Bft) 97,87 %
06.01.2019 12:28 5,7 C 5,6 C 5,0 C 99 % 1031,0 hPa 0,0 l/m 0 min 0 min 74 W/m 9,7 km/h (2 Bft) 97,83 %
06.01.2019 12:30 5,7 C 5,6 C 5,0 C 99 % 1031,0 hPa 0,0 l/m 0 min 0 min 62 W/m 6,4 km/h (2 Bft) 95,74 %
06.01.2019 12:32 5,7 C 5,6 C 5,0 C 99 % 1031,1 hPa 0,0 l/m 0 min 0 min 75 W/m 12,9 km/h (3 Bft) 93,62 %
06.01.2019 12:34 5,7 C 6,1 C 5,0 C 99 % 1031,1 hPa 0,0 l/m 0 min 0 min 97 W/m 12,9 km/h (3 Bft) 97,87 %
06.01.2019 12:36 5,7 C 6,1 C 5,0 C 99 % 1031,1 hPa 0,0 l/m 0 min 0 min 93 W/m 12,9 km/h (3 Bft) 93,75 %
06.01.2019 12:38 5,7 C 6,1 C 5,0 C 99 % 1031,1 hPa 0,0 l/m 0 min 0 min 89 W/m 9,7 km/h (2 Bft) 97,56 %
06.01.2019 12:40 5,7 C 6,1 C 5,0 C 99 % 1031,1 hPa 0,0 l/m 0 min 0 min 82 W/m 12,9 km/h (3 Bft) 94,29 %
06.01.2019 12:42 5,8 C 6,1 C 5,0 C 99 % 1031,0 hPa 0,0 l/m 0 min 0 min 76 W/m 12,9 km/h (3 Bft) 95,74 %
06.01.2019 12:44 5,8 C 6,1 C 5,0 C 99 % 1031,0 hPa 0,0 l/m 0 min 0 min 81 W/m 9,7 km/h (2 Bft) 95,74 %
06.01.2019 12:46 5,8 C 6,1 C 5,0 C 99 % 1031,0 hPa 0,0 l/m 0 min 0 min 79 W/m 12,9 km/h (3 Bft) 95,74 %
06.01.2019 12:48 5,8 C 6,1 C 5,0 C 99 % 1030,9 hPa 0,0 l/m 0 min 0 min 76 W/m 9,7 km/h (2 Bft) 93,62 %
06.01.2019 12:50 5,8 C 6,1 C 5,0 C 99 % 1031,0 hPa 0,0 l/m 0 min 0 min 85 W/m 12,9 km/h (3 Bft) 93,62 %
06.01.2019 12:52 5,8 C 6,1 C 5,0 C 99 % 1030,9 hPa 0,0 l/m 0 min 0 min 98 W/m 12,9 km/h (3 Bft) 97,83 %
06.01.2019 12:54 5,8 C 6,1 C 5,0 C 99 % 1030,9 hPa 0,0 l/m 0 min 0 min 113 W/m 12,9 km/h (3 Bft) 97,87 %
06.01.2019 12:56 5,8 C 6,1 C 5,0 C 99 % 1030,9 hPa 0,0 l/m 0 min 0 min 89 W/m 9,7 km/h (2 Bft) 97,87 %
06.01.2019 12:58 5,8 C 6,1 C 5,0 C 99 % 1030,9 hPa 0,0 l/m 0 min 0 min 59 W/m 12,9 km/h (3 Bft) 97,87 %
06.01.2019 13:00 5,8 C 6,1 C 5,0 C 99 % 1030,9 hPa 0,0 l/m 0 min 0 min 67 W/m 6,4 km/h (2 Bft) 97,87 %
06.01.2019 13:02 5,8 C 6,1 C 5,0 C 99 % 1030,9 hPa 0,0 l/m 0 min 0 min 67 W/m 9,7 km/h (2 Bft) 93,62 %
06.01.2019 13:04 5,8 C 6,1 C 5,0 C 99 % 1030,8 hPa 0,0 l/m 0 min 0 min 83 W/m 9,7 km/h (2 Bft) 97,83 %
06.01.2019 13:06 5,8 C 6,1 C 5,0 C 99 % 1030,9 hPa 0,0 l/m 0 min 0 min 90 W/m 12,9 km/h (3 Bft) 95,31 %
06.01.2019 13:08 5,8 C 6,1 C 5,0 C 99 % 1030,8 hPa 0,0 l/m 0 min 0 min 91 W/m 9,7 km/h (2 Bft) 92,11 %
06.01.2019 13:10 5,9 C 6,1 C 5,0 C 99 % 1030,8 hPa 0,0 l/m 0 min 0 min 82 W/m 9,7 km/h (2 Bft) 95,74 %
06.01.2019 13:12 5,9 C 6,1 C 5,0 C 99 % 1030,8 hPa 0,0 l/m 0 min 0 min 77 W/m 12,9 km/h (3 Bft) 95,74 %
06.01.2019 13:14 5,9 C 6,1 C 5,0 C 99 % 1030,8 hPa 0,0 l/m 0 min 0 min 91 W/m 9,7 km/h (2 Bft) 95,74 %
06.01.2019 13:16 5,9 C 6,1 C 5,0 C 99 % 1030,8 hPa 0,0 l/m 0 min 0 min 102 W/m 12,9 km/h (3 Bft) 93,62 %
06.01.2019 13:18 5,9 C 6,1 C 5,0 C 99 % 1030,6 hPa 0,0 l/m 0 min 0 min 86 W/m 12,9 km/h (3 Bft) 95,74 %
06.01.2019 13:20 5,9 C 6,1 C 5,0 C 99 % 1030,8 hPa 0,0 l/m 0 min 0 min 67 W/m 16,1 km/h (3 Bft) 95,65 %
06.01.2019 13:22 5,9 C 6,1 C 5,0 C 99 % 1030,7 hPa 0,0 l/m 0 min 0 min 67 W/m 16,1 km/h (3 Bft) 95,74 %
06.01.2019 13:24 5,9 C 6,1 C 5,0 C 99 % 1030,7 hPa 0,0 l/m 0 min 0 min 73 W/m 9,7 km/h (2 Bft) 95,74 %
06.01.2019 13:26 5,9 C 6,1 C 5,0 C 99 % 1030,7 hPa 0,0 l/m 0 min 0 min 67 W/m 19,3 km/h (3 Bft) 95,74 %
06.01.2019 13:28 5,9 C 6,1 C 5,0 C 99 % 1030,7 hPa 0,0 l/m 0 min 0 min 63 W/m 16,1 km/h (3 Bft) 93,62 %
06.01.2019 13:30 5,9 C 6,1 C 5,0 C 99 % 1030,8 hPa 0,0 l/m 0 min 0 min 71 W/m 9,7 km/h (2 Bft) 95,74 %
06.01.2019 13:32 5,9 C 6,1 C 5,0 C 99 % 1030,8 hPa 0,0 l/m 0 min 0 min 80 W/m 16,1 km/h (3 Bft) 91,30 %
06.01.2019 13:34 5,9 C 6,1 C 5,0 C 99 % 1030,6 hPa 0,0 l/m 0 min 0 min 86 W/m 16,1 km/h (3 Bft) 95,74 %
06.01.2019 13:36 5,9 C 6,1 C 5,0 C 99 % 1030,6 hPa 0,0 l/m 0 min 0 min 85 W/m 12,9 km/h (3 Bft) 96,61 %
06.01.2019 13:38 5,9 C 6,1 C 5,0 C 99 % 1030,6 hPa 0,0 l/m 0 min 0 min 92 W/m 12,9 km/h (3 Bft) 91,67 %
06.01.2019 13:40 5,9 C 6,1 C 5,0 C 99 % 1030,6 hPa 0,0 l/m 0 min 0 min 96 W/m 9,7 km/h (2 Bft) 95,74 %
06.01.2019 13:42 5,9 C 6,1 C 5,0 C 99 % 1030,6 hPa 0,0 l/m 0 min 0 min 98 W/m 19,3 km/h (3 Bft) 97,87 %
06.01.2019 13:44 5,9 C 6,1 C 5,0 C 99 % 1030,6 hPa 0,0 l/m 0 min 0 min 97 W/m 16,1 km/h (3 Bft) 97,83 %
06.01.2019 13:46 5,9 C 6,1 C 5,0 C 99 % 1030,6 hPa 0,0 l/m 0 min 0 min 93 W/m 12,9 km/h (3 Bft) 97,87 %
06.01.2019 13:48 5,9 C 6,1 C 5,0 C 99 % 1030,5 hPa 0,0 l/m 0 min 0 min 91 W/m 9,7 km/h (2 Bft) 97,87 %
06.01.2019 13:50 5,9 C 6,1 C 5,0 C 99 % 1030,6 hPa 0,0 l/m 0 min 0 min 93 W/m 9,7 km/h (2 Bft) 97,87 %
06.01.2019 13:52 5,9 C 6,1 C 5,0 C 99 % 1030,7 hPa 0,0 l/m 0 min 0 min 99 W/m 12,9 km/h (3 Bft) 97,87 %
06.01.2019 13:54 5,9 C 6,1 C 5,0 C 99 % 1030,7 hPa 0,0 l/m 0 min 0 min 104 W/m 12,9 km/h (3 Bft) 97,87 %
06.01.2019 13:56 5,9 C 6,1 C 5,0 C 99 % 1030,6 hPa 0,0 l/m 0 min 0 min 101 W/m 9,7 km/h (2 Bft) 100,00 %
06.01.2019 13:58 5,9 C 6,1 C 5,0 C 99 % 1030,7 hPa 0,0 l/m 0 min 0 min 93 W/m 9,7 km/h (2 Bft) 100,00 %
06.01.2019 14:00 5,9 C 6,1 C 5,0 C 99 % 1030,6 hPa 0,0 l/m 0 min 0 min 87 W/m 19,3 km/h (3 Bft) 100,00 %
06.01.2019 14:02 5,9 C 6,1 C 5,0 C 98 % 1030,6 hPa 0,0 l/m 0 min 0 min 83 W/m 9,7 km/h (2 Bft) 97,87 %
06.01.2019 14:04 6,0 C 6,1 C 5,0 C 98 % 1030,6 hPa 0,0 l/m 0 min 0 min 81 W/m 9,7 km/h (2 Bft) 100,00 %
06.01.2019 14:06 6,0 C 6,1 C 5,0 C 98 % 1030,6 hPa 0,0 l/m 0 min 0 min 81 W/m 12,9 km/h (3 Bft) 100,00 %
06.01.2019 14:08 6,0 C 6,1 C 5,0 C 98 % 1030,7 hPa 0,0 l/m 0 min 0 min 83 W/m 12,9 km/h (3 Bft) 100,00 %
06.01.2019 14:10 6,0 C 6,1 C 5,0 C 98 % 1030,7 hPa 0,0 l/m 0 min 0 min 90 W/m 12,9 km/h (3 Bft) 100,00 %
06.01.2019 14:12 6,0 C 6,1 C 5,6 C 98 % 1030,7 hPa 0,0 l/m 0 min 0 min 97 W/m 9,7 km/h (2 Bft) 97,87 %
06.01.2019 14:14 6,1 C 6,7 C 5,6 C 98 % 1030,7 hPa 0,0 l/m 0 min 0 min 103 W/m 9,7 km/h (2 Bft) 100,00 %
06.01.2019 14:16 6,1 C 6,7 C 5,6 C 98 % 1030,7 hPa 0,0 l/m 0 min 0 min 108 W/m 6,4 km/h (2 Bft) 100,00 %
06.01.2019 14:18 6,1 C 6,7 C 5,6 C 98 % 1030,7 hPa 0,0 l/m 0 min 0 min 104 W/m 12,9 km/h (3 Bft) 100,00 %
06.01.2019 14:20 6,2 C 6,7 C 5,6 C 98 % 1030,7 hPa 0,0 l/m 0 min 0 min 105 W/m 9,7 km/h (2 Bft) 100,00 %
06.01.2019 14:22 6,2 C 6,7 C 5,6 C 98 % 1030,7 hPa 0,0 l/m 0 min 0 min 102 W/m 9,7 km/h (2 Bft) 100,00 %
06.01.2019 14:24 6,2 C 6,7 C 5,6 C 98 % 1030,7 hPa 0,0 l/m 0 min 0 min 95 W/m 9,7 km/h (2 Bft) 100,00 %
06.01.2019 14:26 6,2 C 6,7 C 5,6 C 98 % 1030,7 hPa 0,0 l/m 0 min 0 min 91 W/m 9,7 km/h (2 Bft) 100,00 %
06.01.2019 14:28 6,3 C 6,7 C 5,6 C 98 % 1030,7 hPa 0,0 l/m 0 min 0 min 88 W/m 9,7 km/h (2 Bft) 100,00 %
06.01.2019 14:30 6,3 C 6,7 C 5,6 C 98 % 1030,7 hPa 0,0 l/m 0 min 0 min 82 W/m 9,7 km/h (2 Bft) 100,00 %
06.01.2019 14:32 6,3 C 6,1 C 5,6 C 98 % 1030,7 hPa 0,0 l/m 0 min 0 min 74 W/m 9,7 km/h (2 Bft) 97,87 %
06.01.2019 14:34 6,3 C 6,1 C 5,6 C 98 % 1030,7 hPa 0,0 l/m 0 min 0 min 69 W/m 6,4 km/h (2 Bft) 100,00 %
06.01.2019 14:36 6,3 C 6,1 C 5,0 C 98 % 1030,7 hPa 0,0 l/m 0 min 0 min 69 W/m 12,9 km/h (3 Bft) 100,00 %
06.01.2019 14:38 6,3 C 6,1 C 5,0 C 98 % 1030,7 hPa 0,0 l/m 0 min 0 min 70 W/m 6,4 km/h (2 Bft) 100,00 %
06.01.2019 14:40 6,3 C 6,1 C 5,0 C 98 % 1030,7 hPa 0,0 l/m 0 min 0 min 68 W/m 12,9 km/h (3 Bft) 100,00 %
06.01.2019 14:42 6,3 C 6,1 C 5,0 C 97 % 1030,8 hPa 0,0 l/m 0 min 0 min 64 W/m 16,1 km/h (3 Bft) 100,00 %
06.01.2019 14:44 6,3 C 6,1 C 5,0 C 97 % 1030,8 hPa 0,0 l/m 0 min 0 min 61 W/m 16,1 km/h (3 Bft) 100,00 %
06.01.2019 14:46 6,3 C 6,1 C 5,0 C 97 % 1030,8 hPa 0,0 l/m 0 min 0 min 58 W/m 6,4 km/h (2 Bft) 100,00 %
06.01.2019 14:48 6,3 C 6,1 C 5,0 C 97 % 1030,9 hPa 0,0 l/m 0 min 0 min 58 W/m 9,7 km/h (2 Bft) 100,00 %
06.01.2019 14:50 6,3 C 6,1 C 5,0 C 97 % 1030,9 hPa 0,0 l/m 0 min 0 min 56 W/m 9,7 km/h (2 Bft) 100,00 %
06.01.2019 14:52 6,3 C 6,1 C 5,0 C 97 % 1031,0 hPa 0,0 l/m 0 min 0 min 54 W/m 9,7 km/h (2 Bft) 100,00 %
06.01.2019 14:54 6,3 C 6,1 C 5,0 C 97 % 1030,9 hPa 0,0 l/m 0 min 0 min 53 W/m 9,7 km/h (2 Bft) 100,00 %
06.01.2019 14:56 6,3 C 6,1 C 5,0 C 97 % 1030,9 hPa 0,0 l/m 0 min 0 min 53 W/m 9,7 km/h (2 Bft) 100,00 %
06.01.2019 14:58 6,3 C 6,1 C 5,0 C 97 % 1031,0 hPa 0,0 l/m 0 min 0 min 51 W/m 9,7 km/h (2 Bft) 97,87 %
06.01.2019 15:00 6,3 C 6,1 C 5,0 C 97 % 1030,9 hPa 0,0 l/m 0 min 0 min 51 W/m 6,4 km/h (2 Bft) 97,87 %
06.01.2019 15:02 6,3 C 6,1 C 5,0 C 96 % 1030,9 hPa 0,0 l/m 0 min 0 min 51 W/m 6,4 km/h (2 Bft) 97,92 %
06.01.2019 15:04 6,4 C 6,1 C 5,0 C 96 % 1031,0 hPa 0,0 l/m 0 min 0 min 51 W/m 6,4 km/h (2 Bft) 97,83 %
06.01.2019 15:06 6,4 C 6,1 C 5,0 C 96 % 1031,0 hPa 0,0 l/m 0 min 0 min 51 W/m 6,4 km/h (2 Bft) 97,87 %
06.01.2019 15:08 6,4 C 6,1 C 5,0 C 96 % 1031,0 hPa 0,0 l/m 0 min 0 min 49 W/m 6,4 km/h (2 Bft) 95,74 %
06.01.2019 15:10 6,4 C 6,1 C 5,0 C 96 % 1031,0 hPa 0,0 l/m 0 min 0 min 47 W/m 6,4 km/h (2 Bft) 97,87 %
06.01.2019 15:12 6,4 C 6,1 C 5,0 C 96 % 1030,9 hPa 0,0 l/m 0 min 0 min 47 W/m 6,4 km/h (2 Bft) 97,87 %
06.01.2019 15:14 6,4 C 6,1 C 5,0 C 96 % 1030,9 hPa 0,0 l/m 0 min 0 min 46 W/m 12,9 km/h (3 Bft) 93,62 %
06.01.2019 15:16 6,4 C 6,1 C 5,0 C 96 % 1030,9 hPa 0,0 l/m 0 min 0 min 43 W/m 6,4 km/h (2 Bft) 95,74 %
06.01.2019 15:18 6,4 C 6,1 C 5,0 C 96 % 1031,0 hPa 0,0 l/m 0 min 0 min 42 W/m 9,7 km/h (2 Bft) 95,74 %
06.01.2019 15:20 6,4 C 5,6 C 5,0 C 96 % 1031,1 hPa 0,0 l/m 0 min 0 min 40 W/m 6,4 km/h (2 Bft) 97,83 %
06.01.2019 15:22 6,4 C 5,6 C 5,0 C 96 % 1031,1 hPa 0,0 l/m 0 min 0 min 38 W/m 6,4 km/h (2 Bft) 95,74 %
06.01.2019 15:24 6,4 C 5,6 C 5,0 C 96 % 1031,1 hPa 0,2 l/m 0 min 0 min 35 W/m 6,4 km/h (2 Bft) 97,87 %
06.01.2019 15:26 6,4 C 5,6 C 5,0 C 96 % 1031,1 hPa 0,0 l/m 0 min 0 min 33 W/m 6,4 km/h (2 Bft) 97,87 %
06.01.2019 15:28 6,3 C 5,6 C 5,0 C 95 % 1031,1 hPa 0,0 l/m 0 min 0 min 32 W/m 9,7 km/h (2 Bft) 95,74 %
06.01.2019 15:30 6,3 C 5,6 C 5,0 C 95 % 1031,1 hPa 0,0 l/m 0 min 0 min 32 W/m 6,4 km/h (2 Bft) 97,83 %
06.01.2019 15:32 6,3 C 5,6 C 5,0 C 95 % 1031,2 hPa 0,0 l/m 0 min 0 min 30 W/m 6,4 km/h (2 Bft) 93,62 %
06.01.2019 15:34 6,3 C 5,6 C 5,0 C 95 % 1031,2 hPa 0,0 l/m 0 min 0 min 29 W/m 3,2 km/h (1 Bft) 95,74 %
06.01.2019 15:36 6,2 C 5,6 C 5,0 C 95 % 1031,1 hPa 0,0 l/m 0 min 0 min 26 W/m 6,4 km/h (2 Bft) 95,74 %
06.01.2019 15:38 6,2 C 5,6 C 5,0 C 95 % 1031,1 hPa 0,0 l/m 0 min 0 min 25 W/m 6,4 km/h (2 Bft) 93,62 %
06.01.2019 15:40 6,2 C 5,6 C 5,0 C 95 % 1031,1 hPa 0,0 l/m 0 min 0 min 23 W/m 6,4 km/h (2 Bft) 94,29 %
06.01.2019 15:42 6,2 C 5,6 C 5,0 C 95 % 1031,1 hPa 0,0 l/m 0 min 0 min 21 W/m 6,4 km/h (2 Bft) 95,74 %
06.01.2019 15:44 6,2 C 5,6 C 4,4 C 94 % 1031,1 hPa 0,0 l/m 0 min 0 min 19 W/m 6,4 km/h (2 Bft) 93,62 %
06.01.2019 15:46 6,2 C 5,6 C 4,4 C 94 % 1031,2 hPa 0,0 l/m 0 min 0 min 19 W/m 6,4 km/h (2 Bft) 93,48 %
06.01.2019 15:48 6,2 C 5,6 C 4,4 C 94 % 1031,1 hPa 0,0 l/m 0 min 0 min 19 W/m 6,4 km/h (2 Bft) 93,62 %
06.01.2019 15:50 6,2 C 5,6 C 4,4 C 94 % 1031,2 hPa 0,0 l/m 0 min 0 min 19 W/m 6,4 km/h (2 Bft) 97,87 %
06.01.2019 15:52 6,2 C 5,6 C 4,4 C 94 % 1031,2 hPa 0,0 l/m 0 min 0 min 19 W/m 6,4 km/h (2 Bft) 97,87 %
06.01.2019 15:54 6,2 C 5,0 C 4,4 C 94 % 1031,2 hPa 0,0 l/m 0 min 0 min 18 W/m 6,4 km/h (2 Bft) 93,62 %
06.01.2019 15:56 6,2 C 5,0 C 4,4 C 94 % 1031,2 hPa 0,0 l/m 0 min 0 min 18 W/m 6,4 km/h (2 Bft) 95,74 %
06.01.2019 15:58 6,1 C 5,0 C 4,4 C 94 % 1031,2 hPa 0,0 l/m 0 min 0 min 18 W/m 6,4 km/h (2 Bft) 93,48 %
06.01.2019 16:00 6,1 C 5,0 C 4,4 C 94 % 1031,2 hPa 0,0 l/m 0 min 0 min 18 W/m 6,4 km/h (2 Bft) 95,74 %
06.01.2019 16:02 6,1 C 5,0 C 4,4 C 94 % 1031,3 hPa 0,0 l/m 0 min 0 min 15 W/m 9,7 km/h (2 Bft) 95,74 %
06.01.2019 16:04 6,1 C 5,6 C 4,4 C 94 % 1031,3 hPa 0,0 l/m 0 min 0 min 13 W/m 9,7 km/h (2 Bft) 95,74 %
06.01.2019 16:06 6,1 C 5,0 C 4,4 C 94 % 1031,3 hPa 0,0 l/m 0 min 0 min 11 W/m 6,4 km/h (2 Bft) 95,31 %
06.01.2019 16:08 6,1 C 5,0 C 4,4 C 94 % 1031,3 hPa 0,0 l/m 0 min 0 min 11 W/m 6,4 km/h (2 Bft) 95,12 %
06.01.2019 16:10 6,1 C 5,0 C 4,4 C 94 % 1031,3 hPa 0,0 l/m 0 min 0 min 11 W/m 3,2 km/h (1 Bft) 97,14 %
06.01.2019 16:12 6,0 C 5,0 C 4,4 C 94 % 1031,3 hPa 0,0 l/m 0 min 0 min 9 W/m 3,2 km/h (1 Bft) 93,62 %
06.01.2019 16:14 6,0 C 5,0 C 4,4 C 93 % 1031,3 hPa 0,0 l/m 0 min 0 min 9 W/m 3,2 km/h (1 Bft) 97,87 %
06.01.2019 16:16 6,0 C 5,0 C 4,4 C 93 % 1031,3 hPa 0,0 l/m 0 min 0 min 7 W/m 6,4 km/h (2 Bft) 95,74 %
06.01.2019 16:18 6,0 C 5,0 C 4,4 C 93 % 1031,3 hPa 0,0 l/m 0 min 0 min 6 W/m 6,4 km/h (2 Bft) 97,87 %
06.01.2019 16:20 6,0 C 5,0 C 4,4 C 93 % 1031,3 hPa 0,0 l/m 0 min 0 min 5 W/m 3,2 km/h (1 Bft) 95,65 %
06.01.2019 16:22 6,0 C 5,0 C 4,4 C 93 % 1031,3 hPa 0,0 l/m 0 min 0 min 5 W/m 6,4 km/h (2 Bft) 97,87 %
06.01.2019 16:24 6,0 C 5,0 C 4,4 C 93 % 1031,4 hPa 0,0 l/m 0 min 0 min 5 W/m 6,4 km/h (2 Bft) 97,87 %
06.01.2019 16:26 5,9 C 5,0 C 4,4 C 93 % 1031,4 hPa 0,0 l/m 0 min 0 min 5 W/m 3,2 km/h (1 Bft) 93,62 %
06.01.2019 16:28 5,9 C 5,0 C 4,4 C 93 % 1031,4 hPa 0,0 l/m 0 min 0 min 2 W/m 6,4 km/h (2 Bft) 97,87 %
06.01.2019 16:30 5,9 C 5,0 C 4,4 C 93 % 1031,4 hPa 0,0 l/m 0 min 0 min 0 W/m 6,4 km/h (2 Bft) 97,87 %
06.01.2019 16:32 5,9 C 5,0 C 4,4 C 93 % 1031,4 hPa 0,0 l/m 0 min 0 min 0 W/m 9,7 km/h (2 Bft) 97,83 %
06.01.2019 16:34 5,9 C 5,0 C 4,4 C 93 % 1031,4 hPa 0,0 l/m 0 min 0 min 0 W/m 3,2 km/h (1 Bft) 97,87 %
06.01.2019 16:36 5,9 C 5,0 C 4,4 C 93 % 1031,4 hPa 0,0 l/m 0 min 0 min 0 W/m 6,4 km/h (2 Bft) 94,92 %
06.01.2019 16:38 5,9 C 5,0 C 4,4 C 93 % 1031,3 hPa 0,0 l/m 0 min 0 min 0 W/m 6,4 km/h (2 Bft) 97,67 %
06.01.2019 16:40 5,9 C 5,0 C 4,4 C 93 % 1031,3 hPa 0,0 l/m 0 min 0 min 0 W/m 3,2 km/h (1 Bft) 97,87 %
06.01.2019 16:42 5,9 C 5,0 C 3,9 C 94 % 1031,4 hPa 0,0 l/m 0 min 0 min 0 W/m 3,2 km/h (1 Bft) 97,87 %
06.01.2019 16:44 5,9 C 5,0 C 3,9 C 94 % 1031,4 hPa 0,0 l/m 0 min 0 min 0 W/m 6,4 km/h (2 Bft) 97,87 %
06.01.2019 16:46 5,9 C 5,0 C 3,9 C 94 % 1031,4 hPa 0,0 l/m 0 min 0 min 0 W/m 6,4 km/h (2 Bft) 97,87 %
06.01.2019 16:48 5,8 C 5,0 C 3,9 C 94 % 1031,4 hPa 0,0 l/m 0 min 0 min 0 W/m 6,4 km/h (2 Bft) 100,00 %
06.01.2019 16:50 5,8 C 5,0 C 3,9 C 94 % 1031,4 hPa 0,0 l/m 0 min 0 min 0 W/m 9,7 km/h (2 Bft) 100,00 %
06.01.2019 16:52 5,8 C 5,0 C 3,9 C 94 % 1031,3 hPa 0,0 l/m 0 min 0 min 0 W/m 6,4 km/h (2 Bft) 100,00 %
06.01.2019 16:54 5,8 C 5,0 C 3,9 C 94 % 1031,3 hPa 0,0 l/m 0 min 0 min 0 W/m 6,4 km/h (2 Bft) 100,00 %
06.01.2019 16:56 5,8 C 5,0 C 3,9 C 94 % 1031,4 hPa 0,0 l/m 0 min 2 min 0 W/m 6,4 km/h (2 Bft) 100,00 %
06.01.2019 16:58 5,7 C 5,0 C 3,9 C 94 % 1031,4 hPa 0,0 l/m 0 min 2 min 0 W/m 6,4 km/h (2 Bft) 100,00 %
06.01.2019 17:00 5,7 C 4,4 C 3,9 C 94 % 1031,4 hPa 0,0 l/m 0 min 0 min 0 W/m 3,2 km/h (1 Bft) 100,00 %
06.01.2019 17:02 5,7 C 4,4 C 3,9 C 94 % 1031,4 hPa 0,0 l/m 0 min 0 min 0 W/m 6,4 km/h (2 Bft) 100,00 %
06.01.2019 17:04 5,7 C 4,4 C 3,9 C 93 % 1031,3 hPa 0,0 l/m 0 min 0 min 0 W/m 6,4 km/h (2 Bft) 97,87 %
06.01.2019 17:06 5,7 C 4,4 C 3,9 C 93 % 1031,3 hPa 0,0 l/m 0 min 0 min 0 W/m 6,4 km/h (2 Bft) 97,87 %
06.01.2019 17:08 5,7 C 4,4 C 3,9 C 93 % 1031,3 hPa 0,0 l/m 0 min 0 min 0 W/m 3,2 km/h (1 Bft) 100,00 %
06.01.2019 17:10 5,6 C 4,4 C 3,9 C 93 % 1031,3 hPa 0,0 l/m 0 min 0 min 0 W/m 3,2 km/h (1 Bft) 100,00 %
06.01.2019 17:12 5,6 C 4,4 C 3,9 C 94 % 1031,4 hPa 0,0 l/m 0 min 0 min 0 W/m 6,4 km/h (2 Bft) 100,00 %
06.01.2019 17:14 5,6 C 4,4 C 3,9 C 94 % 1031,4 hPa 0,0 l/m 0 min 0 min 0 W/m 6,4 km/h (2 Bft) 100,00 %
06.01.2019 17:16 5,6 C 4,4 C 3,9 C 94 % 1031,4 hPa 0,0 l/m 0 min 0 min 0 W/m 3,2 km/h (1 Bft) 97,87 %
06.01.2019 17:18 5,6 C 4,4 C 3,9 C 94 % 1031,4 hPa 0,0 l/m 0 min 0 min 0 W/m 6,4 km/h (2 Bft) 100,00 %
06.01.2019 17:20 5,6 C 4,4 C 3,9 C 94 % 1031,4 hPa 0,0 l/m 0 min 0 min 0 W/m 6,4 km/h (2 Bft) 100,00 %
06.01.2019 17:22 5,5 C 4,4 C 3,9 C 94 % 1031,4 hPa 0,0 l/m 0 min 0 min 0 W/m 9,7 km/h (2 Bft) 100,00 %
06.01.2019 17:24 5,5 C 4,4 C 3,9 C 94 % 1031,4 hPa 0,0 l/m 0 min 0 min 0 W/m 3,2 km/h (1 Bft) 100,00 %
06.01.2019 17:26 5,5 C 4,4 C 3,9 C 94 % 1031,5 hPa 0,0 l/m 0 min 0 min 0 W/m 3,2 km/h (1 Bft) 100,00 %
06.01.2019 17:28 5,5 C 4,4 C 3,9 C 94 % 1031,4 hPa 0,0 l/m 0 min 2 min 0 W/m 3,2 km/h (1 Bft) 100,00 %
06.01.2019 17:30 5,5 C 4,4 C 3,9 C 94 % 1031,4 hPa 0,0 l/m 0 min 2 min 0 W/m 3,2 km/h (1 Bft) 100,00 %
06.01.2019 17:32 5,5 C 4,4 C 3,9 C 94 % 1031,4 hPa 0,0 l/m 0 min 2 min 0 W/m 6,4 km/h (2 Bft) 100,00 %
06.01.2019 17:34 5,5 C 4,4 C 3,9 C 94 % 1031,5 hPa 0,0 l/m 0 min 2 min 0 W/m 6,4 km/h (2 Bft) 100,00 %
06.01.2019 17:36 5,4 C 4,4 C 3,9 C 94 % 1031,5 hPa 0,0 l/m 0 min 2 min 0 W/m 6,4 km/h (2 Bft) 100,00 %
06.01.2019 17:38 5,4 C 4,4 C 3,9 C 94 % 1031,5 hPa 0,0 l/m 0 min 0 min 0 W/m 6,4 km/h (2 Bft) 100,00 %
06.01.2019 17:40 5,4 C 4,4 C 3,9 C 94 % 1031,5 hPa 0,0 l/m 0 min 0 min 0 W/m 3,2 km/h (1 Bft) 100,00 %
06.01.2019 17:42 5,4 C 4,4 C 3,9 C 94 % 1031,5 hPa 0,0 l/m 0 min 2 min 0 W/m 3,2 km/h (1 Bft) 100,00 %
06.01.2019 17:44 5,4 C 4,4 C 3,9 C 94 % 1031,5 hPa 0,0 l/m 0 min 2 min 0 W/m 6,4 km/h (2 Bft) 100,00 %
06.01.2019 17:46 5,4 C 4,4 C 3,9 C 94 % 1031,6 hPa 0,0 l/m 0 min 2 min 0 W/m 6,4 km/h (2 Bft) 100,00 %
06.01.2019 17:48 5,4 C 4,4 C 3,9 C 94 % 1031,6 hPa 0,0 l/m 0 min 2 min 0 W/m 3,2 km/h (1 Bft) 100,00 %
06.01.2019 17:50 5,4 C 4,4 C 3,9 C 94 % 1031,5 hPa 0,0 l/m 0 min 2 min 0 W/m 6,4 km/h (2 Bft) 100,00 %
06.01.2019 17:52 5,4 C 4,4 C 3,9 C 94 % 1031,5 hPa 0,0 l/m 0 min 2 min 0 W/m 6,4 km/h (2 Bft) 100,00 %
06.01.2019 17:54 5,4 C 4,4 C 3,9 C 94 % 1031,6 hPa 0,0 l/m 0 min 2 min 0 W/m 6,4 km/h (2 Bft) 97,87 %
06.01.2019 17:56 5,4 C 4,4 C 3,9 C 94 % 1031,5 hPa 0,0 l/m 0 min 0 min 0 W/m 6,4 km/h (2 Bft) 100,00 %
06.01.2019 17:58 5,4 C 4,4 C 3,9 C 94 % 1031,6 hPa 0,0 l/m 0 min 0 min 0 W/m 6,4 km/h (2 Bft) 100,00 %
06.01.2019 18:00 5,4 C 4,4 C 3,9 C 94 % 1031,6 hPa 0,0 l/m 0 min 0 min 0 W/m 3,2 km/h (1 Bft) 100,00 %
06.01.2019 18:02 5,4 C 4,4 C 3,9 C 94 % 1031,5 hPa 0,0 l/m 0 min 2 min 0 W/m 3,2 km/h (1 Bft) 100,00 %
06.01.2019 18:04 5,4 C 4,4 C 3,9 C 95 % 1031,6 hPa 0,0 l/m 0 min 2 min 0 W/m 3,2 km/h (1 Bft) 100,00 %
06.01.2019 18:08 5,4 C 4,4 C 3,9 C 95 % 1031,6 hPa 0,0 l/m 0 min 4 min 0 W/m 3,2 km/h (1 Bft) 97,87 %
06.01.2019 18:10 5,4 C 4,4 C 3,9 C 95 % 1031,5 hPa 0,0 l/m 0 min 2 min 0 W/m 3,2 km/h (1 Bft) 97,87 %
06.01.2019 18:12 5,4 C 4,4 C 3,9 C 95 % 1031,6 hPa 0,0 l/m 0 min 0 min 0 W/m 3,2 km/h (1 Bft) 95,74 %
06.01.2019 18:14 5,4 C 4,4 C 3,9 C 95 % 1031,5 hPa 0,0 l/m 0 min 0 min 0 W/m 3,2 km/h (1 Bft) 95,65 %
06.01.2019 18:16 5,4 C 4,4 C 3,9 C 95 % 1031,6 hPa 0,0 l/m 0 min 0 min 0 W/m 3,2 km/h (1 Bft) 95,74 %
06.01.2019 18:18 5,4 C 4,4 C 3,9 C 95 % 1031,6 hPa 0,0 l/m 0 min 0 min 0 W/m 6,4 km/h (2 Bft) 95,74 %
06.01.2019 18:20 5,4 C 4,4 C 3,9 C 95 % 1031,6 hPa 0,0 l/m 0 min 0 min 0 W/m 3,2 km/h (1 Bft) 95,74 %
06.01.2019 18:22 5,4 C 4,4 C 3,9 C 95 % 1031,6 hPa 0,0 l/m 0 min 2 min 0 W/m 6,4 km/h (2 Bft) 95,74 %
06.01.2019 18:24 5,4 C 4,4 C 3,9 C 95 % 1031,6 hPa 0,0 l/m 0 min 0 min 0 W/m 3,2 km/h (1 Bft) 93,62 %
06.01.2019 18:26 5,4 C 4,4 C 3,9 C 95 % 1031,6 hPa 0,0 l/m 0 min 0 min 0 W/m 6,4 km/h (2 Bft) 93,48 %
06.01.2019 18:28 5,4 C 4,4 C 3,9 C 95 % 1031,6 hPa 0,0 l/m 0 min 0 min 0 W/m 3,2 km/h (1 Bft) 95,74 %
06.01.2019 18:30 5,3 C 4,4 C 3,9 C 95 % 1031,6 hPa 0,0 l/m 0 min 0 min 0 W/m 6,4 km/h (2 Bft) 93,62 %
06.01.2019 18:32 5,3 C 4,4 C 3,9 C 95 % 1031,6 hPa 0,0 l/m 0 min 0 min 0 W/m 6,4 km/h (2 Bft) 94,29 %
06.01.2019 18:34 5,3 C 4,4 C 3,9 C 95 % 1031,5 hPa 0,0 l/m 0 min 0 min 0 W/m 6,4 km/h (2 Bft) 93,62 %
06.01.2019 18:36 5,3 C 4,4 C 3,9 C 95 % 1031,6 hPa 0,0 l/m 0 min 0 min 0 W/m 3,2 km/h (1 Bft) 93,22 %
06.01.2019 18:38 5,3 C 4,4 C 3,9 C 95 % 1031,6 hPa 0,0 l/m 0 min 0 min 0 W/m 3,2 km/h (1 Bft) 95,35 %
06.01.2019 18:40 5,3 C 4,4 C 3,9 C 95 % 1031,6 hPa 0,0 l/m 0 min 0 min 0 W/m 3,2 km/h (1 Bft) 91,49 %
06.01.2019 18:42 5,3 C 4,4 C 3,9 C 95 % 1031,6 hPa 0,0 l/m 0 min 0 min 0 W/m 6,4 km/h (2 Bft) 93,62 %
06.01.2019 18:44 5,3 C 4,4 C 3,9 C 95 % 1031,5 hPa 0,0 l/m 0 min 0 min 0 W/m 3,2 km/h (1 Bft) 91,49 %
06.01.2019 18:46 5,3 C 4,4 C 3,9 C 95 % 1031,6 hPa 0,0 l/m 0 min 0 min 0 W/m 6,4 km/h (2 Bft) 93,62 %
06.01.2019 18:48 5,3 C 4,4 C 3,9 C 95 % 1031,5 hPa 0,0 l/m 0 min 0 min 0 W/m 6,4 km/h (2 Bft) 93,48 %
06.01.2019 18:50 5,3 C 4,4 C 3,9 C 95 % 1031,6 hPa 0,0 l/m 0 min 0 min 0 W/m 3,2 km/h (1 Bft) 93,62 %
06.01.2019 18:52 5,3 C 4,4 C 3,9 C 95 % 1031,6 hPa 0,0 l/m 0 min 0 min 0 W/m 9,7 km/h (2 Bft) 95,74 %
06.01.2019 18:54 5,3 C 4,4 C 3,9 C 95 % 1031,6 hPa 0,0 l/m 0 min 0 min 0 W/m 6,4 km/h (2 Bft) 95,74 %
06.01.2019 18:56 5,3 C 4,4 C 3,9 C 95 % 1031,6 hPa 0,0 l/m 0 min 0 min 0 W/m 6,4 km/h (2 Bft) 95,74 %
06.01.2019 18:58 5,3 C 4,4 C 3,9 C 95 % 1031,6 hPa 0,0 l/m 0 min 0 min 0 W/m 9,7 km/h (2 Bft) 93,62 %
06.01.2019 19:00 5,3 C 4,4 C 3,9 C 95 % 1031,7 hPa 0,0 l/m 0 min 0 min 0 W/m 6,4 km/h (2 Bft) 93,48 %
06.01.2019 19:02 5,3 C 4,4 C 3,9 C 95 % 1031,6 hPa 0,0 l/m 0 min 0 min 0 W/m 3,2 km/h (1 Bft) 95,74 %
06.01.2019 19:04 5,2 C 4,4 C 3,9 C 96 % 1031,7 hPa 0,0 l/m 0 min 0 min 0 W/m 6,4 km/h (2 Bft) 93,62 %
06.01.2019 19:06 5,2 C 4,4 C 3,9 C 96 % 1031,7 hPa 0,0 l/m 0 min 0 min 0 W/m 3,2 km/h (1 Bft) 93,62 %
06.01.2019 19:08 5,2 C 4,4 C 3,9 C 96 % 1031,7 hPa 0,0 l/m 0 min 0 min 0 W/m 6,4 km/h (2 Bft) 95,74 %
06.01.2019 19:10 5,2 C 4,4 C 3,9 C 96 % 1031,7 hPa 0,0 l/m 0 min 0 min 0 W/m 9,7 km/h (2 Bft) 97,83 %
06.01.2019 19:12 5,2 C 4,4 C 3,9 C 96 % 1031,7 hPa 0,0 l/m 0 min 0 min 0 W/m 6,4 km/h (2 Bft) 97,87 %
06.01.2019 19:14 5,2 C 4,4 C 3,9 C 96 % 1031,8 hPa 0,0 l/m 0 min 0 min 0 W/m 6,4 km/h (2 Bft) 97,87 %
06.01.2019 19:16 5,2 C 4,4 C 3,9 C 96 % 1031,8 hPa 0,0 l/m 0 min 0 min 0 W/m 6,4 km/h (2 Bft) 97,87 %
06.01.2019 19:18 5,2 C 4,4 C 3,9 C 96 % 1031,8 hPa 0,0 l/m 0 min 0 min 0 W/m 3,2 km/h (1 Bft) 97,87 %
06.01.2019 19:20 5,2 C 4,4 C 3,9 C 96 % 1031,8 hPa 0,0 l/m 0 min 0 min 0 W/m 9,7 km/h (2 Bft) 97,87 %
06.01.2019 19:22 5,2 C 4,4 C 3,9 C 96 % 1031,8 hPa 0,0 l/m 0 min 0 min 0 W/m 6,4 km/h (2 Bft) 97,83 %
06.01.2019 19:24 5,2 C 4,4 C 3,9 C 96 % 1031,8 hPa 0,0 l/m 0 min 0 min 0 W/m 3,2 km/h (1 Bft) 97,87 %
06.01.2019 19:26 5,2 C 4,4 C 3,9 C 96 % 1031,8 hPa 0,0 l/m 0 min 0 min 0 W/m 3,2 km/h (1 Bft) 97,87 %
06.01.2019 19:28 5,2 C 4,4 C 3,9 C 96 % 1031,8 hPa 0,0 l/m 0 min 0 min 0 W/m 6,4 km/h (2 Bft) 95,74 %
06.01.2019 19:30 5,2 C 4,4 C 3,9 C 96 % 1031,8 hPa 0,0 l/m 0 min 0 min 0 W/m 6,4 km/h (2 Bft) 97,87 %
06.01.2019 19:32 5,2 C 4,4 C 3,9 C 96 % 1031,9 hPa 0,0 l/m 0 min 0 min 0 W/m 6,4 km/h (2 Bft) 100,00 %
06.01.2019 19:34 5,2 C 4,4 C 3,9 C 96 % 1031,8 hPa 0,0 l/m 0 min 0 min 0 W/m 6,4 km/h (2 Bft) 100,00 %
06.01.2019 19:36 5,2 C 4,4 C 3,9 C 96 % 1031,8 hPa 0,0 l/m 0 min 0 min 0 W/m 6,4 km/h (2 Bft) 100,00 %
06.01.2019 19:38 5,2 C 4,4 C 3,9 C 96 % 1031,8 hPa 0,0 l/m 0 min 0 min 0 W/m 6,4 km/h (2 Bft) 97,87 %
06.01.2019 19:40 5,2 C 4,4 C 3,9 C 96 % 1031,8 hPa 0,0 l/m 0 min 0 min 0 W/m 6,4 km/h (2 Bft) 100,00 %
06.01.2019 19:42 5,2 C 4,4 C 3,9 C 96 % 1031,8 hPa 0,0 l/m 0 min 0 min 0 W/m 6,4 km/h (2 Bft) 100,00 %
06.01.2019 19:44 5,1 C 4,4 C 3,9 C 96 % 1031,8 hPa 0,0 l/m 0 min 0 min 0 W/m 9,7 km/h (2 Bft) 100,00 %
06.01.2019 19:46 5,1 C 4,4 C 3,9 C 96 % 1031,8 hPa 0,0 l/m 0 min 0 min 0 W/m 6,4 km/h (2 Bft) 97,83 %
06.01.2019 19:48 5,1 C 4,4 C 3,9 C 96 % 1031,9 hPa 0,0 l/m 0 min 0 min 0 W/m 6,4 km/h (2 Bft) 100,00 %
06.01.2019 19:50 5,1 C 4,4 C 3,9 C 96 % 1031,9 hPa 0,0 l/m 0 min 0 min 0 W/m 6,4 km/h (2 Bft) 100,00 %
06.01.2019 19:52 5,1 C 4,4 C 3,9 C 96 % 1031,9 hPa 0,0 l/m 0 min 0 min 0 W/m 9,7 km/h (2 Bft) 100,00 %
06.01.2019 19:54 5,1 C 4,4 C 3,9 C 96 % 1031,9 hPa 0,0 l/m 0 min 0 min 0 W/m 6,4 km/h (2 Bft) 100,00 %
06.01.2019 19:56 5,1 C 4,4 C 3,9 C 96 % 1032,0 hPa 0,0 l/m 0 min 0 min 0 W/m 3,2 km/h (1 Bft) 100,00 %
06.01.2019 19:58 5,1 C 4,4 C 3,9 C 96 % 1032,0 hPa 0,0 l/m 0 min 0 min 0 W/m 6,4 km/h (2 Bft) 100,00 %
06.01.2019 20:00 5,1 C 4,4 C 3,9 C 96 % 1032,0 hPa 0,0 l/m 0 min 0 min 0 W/m 6,4 km/h (2 Bft) 97,87 %
06.01.2019 20:02 5,1 C 4,4 C 3,9 C 96 % 1032,0 hPa 0,0 l/m 0 min 0 min 0 W/m 0,0 km/h (0 Bft) 100,00 %
06.01.2019 20:04 5,1 C 4,4 C 3,9 C 96 % 1032,0 hPa 0,0 l/m 0 min 0 min 0 W/m 0,0 km/h (0 Bft) 100,00 %
06.01.2019 20:06 5,1 C 4,4 C 3,9 C 96 % 1032,0 hPa 0,0 l/m 0 min 0 min 0 W/m 0,0 km/h (0 Bft) 100,00 %
06.01.2019 20:08 5,0 C 3,9 C 3,9 C 96 % 1031,9 hPa 0,0 l/m 0 min 0 min 0 W/m 0,0 km/h (0 Bft) 95,74 %
06.01.2019 20:10 5,0 C 3,9 C 3,9 C 96 % 1032,0 hPa 0,0 l/m 0 min 0 min 0 W/m 0,0 km/h (0 Bft) 100,00 %
06.01.2019 20:12 5,0 C 3,9 C 3,9 C 96 % 1032,0 hPa 0,0 l/m 0 min 0 min 0 W/m 0,0 km/h (0 Bft) 100,00 %
06.01.2019 20:14 5,0 C 3,9 C 3,9 C 96 % 1031,9 hPa 0,0 l/m 0 min 0 min 0 W/m 0,0 km/h (0 Bft) 100,00 %
06.01.2019 20:16 5,0 C 3,9 C 3,9 C 96 % 1031,9 hPa 0,0 l/m 0 min 0 min 0 W/m 0,0 km/h (0 Bft) 97,87 %
06.01.2019 20:18 5,0 C 3,9 C 3,3 C 96 % 1031,9 hPa 0,0 l/m 0 min 0 min 0 W/m 0,0 km/h (0 Bft) 100,00 %
06.01.2019 20:20 5,0 C 3,9 C 3,3 C 96 % 1032,0 hPa 0,0 l/m 0 min 0 min 0 W/m 0,0 km/h (0 Bft) 97,83 %
06.01.2019 20:22 4,9 C 3,9 C 3,3 C 96 % 1032,0 hPa 0,0 l/m 0 min 0 min 0 W/m 0,0 km/h (0 Bft) 100,00 %
06.01.2019 20:24 4,9 C 3,9 C 3,3 C 96 % 1032,0 hPa 0,0 l/m 0 min 0 min 0 W/m 0,0 km/h (0 Bft) 100,00 %
06.01.2019 20:26 4,9 C 3,9 C 3,3 C 96 % 1032,0 hPa 0,0 l/m 0 min 0 min 0 W/m 0,0 km/h (0 Bft) 100,00 %
06.01.2019 20:28 4,9 C 3,9 C 3,3 C 96 % 1032,0 hPa 0,0 l/m 0 min 0 min 0 W/m 0,0 km/h (0 Bft) 97,87 %
06.01.2019 20:30 4,9 C 3,9 C 3,3 C 96 % 1032,0 hPa 0,0 l/m 0 min 0 min 0 W/m 0,0 km/h (0 Bft) 95,74 %
06.01.2019 20:32 4,9 C 3,9 C 3,3 C 96 % 1032,0 hPa 0,0 l/m 0 min 0 min 0 W/m 0,0 km/h (0 Bft) 100,00 %
06.01.2019 20:34 4,9 C 3,9 C 3,3 C 96 % 1032,0 hPa 0,0 l/m 0 min 0 min 0 W/m 0,0 km/h (0 Bft) 100,00 %
06.01.2019 20:36 4,9 C 3,9 C 3,3 C 96 % 1032,1 hPa 0,0 l/m 0 min 0 min 0 W/m 0,0 km/h (0 Bft) 97,87 %
06.01.2019 20:38 4,9 C 3,9 C 3,3 C 96 % 1032,1 hPa 0,0 l/m 0 min 0 min 0 W/m 9,7 km/h (2 Bft) 100,00 %
06.01.2019 20:40 4,9 C 3,9 C 3,3 C 96 % 1032,1 hPa 0,0 l/m 0 min 2 min 0 W/m 9,7 km/h (2 Bft) 100,00 %
06.01.2019 20:42 4,9 C 3,9 C 3,3 C 96 % 1032,1 hPa 0,0 l/m 0 min 2 min 0 W/m 6,4 km/h (2 Bft) 100,00 %
06.01.2019 20:44 4,9 C 3,9 C 3,3 C 96 % 1032,1 hPa 0,0 l/m 0 min 2 min 0 W/m 9,7 km/h (2 Bft) 97,87 %
06.01.2019 20:46 4,9 C 3,9 C 3,3 C 96 % 1032,1 hPa 0,0 l/m 0 min 2 min 0 W/m 6,4 km/h (2 Bft) 97,83 %
06.01.2019 20:48 4,8 C 3,9 C 3,3 C 96 % 1032,0 hPa 0,0 l/m 0 min 2 min 0 W/m 9,7 km/h (2 Bft) 97,87 %
06.01.2019 20:50 4,8 C 3,9 C 3,3 C 96 % 1032,0 hPa 0,0 l/m 0 min 2 min 0 W/m 6,4 km/h (2 Bft) 97,87 %
06.01.2019 20:52 4,8 C 3,9 C 3,3 C 96 % 1031,9 hPa 0,0 l/m 0 min 2 min 0 W/m 6,4 km/h (2 Bft) 97,87 %
06.01.2019 20:54 4,8 C 3,9 C 3,3 C 96 % 1031,9 hPa 0,2 l/m 0 min 2 min 0 W/m 3,2 km/h (1 Bft) 97,87 %
06.01.2019 20:56 4,8 C 3,9 C 3,3 C 96 % 1032,0 hPa 0,0 l/m 0 min 2 min 0 W/m 0,0 km/h (0 Bft) 97,87 %
06.01.2019 20:58 4,8 C 3,9 C 3,3 C 96 % 1032,0 hPa 0,0 l/m 0 min 2 min 0 W/m 0,0 km/h (0 Bft) 97,83 %
06.01.2019 21:00 4,8 C 3,9 C 3,3 C 96 % 1031,9 hPa 0,0 l/m 0 min 2 min 0 W/m 0,0 km/h (0 Bft) 97,87 %
06.01.2019 21:02 4,8 C 3,9 C 3,3 C 96 % 1031,9 hPa 0,0 l/m 0 min 0 min 0 W/m 0,0 km/h (0 Bft) 95,74 %
06.01.2019 21:04 4,8 C 3,9 C 3,3 C 96 % 1031,9 hPa 0,0 l/m 0 min 0 min 0 W/m 0,0 km/h (0 Bft) 97,87 %
06.01.2019 21:06 4,8 C 3,9 C 3,3 C 96 % 1031,9 hPa 0,0 l/m 0 min 0 min 0 W/m 0,0 km/h (0 Bft) 95,74 %
06.01.2019 21:08 4,8 C 3,9 C 3,3 C 96 % 1031,9 hPa 0,0 l/m 0 min 0 min 0 W/m 0,0 km/h (0 Bft) 95,65 %
06.01.2019 21:10 4,8 C 3,9 C 3,3 C 96 % 1031,9 hPa 0,0 l/m 0 min 0 min 0 W/m 0,0 km/h (0 Bft) 95,74 %
06.01.2019 21:12 4,8 C 3,9 C 3,3 C 96 % 1031,9 hPa 0,0 l/m 0 min 0 min 0 W/m 0,0 km/h (0 Bft) 97,87 %
06.01.2019 21:14 4,8 C 3,9 C 3,3 C 96 % 1032,0 hPa 0,0 l/m 0 min 0 min 0 W/m 0,0 km/h (0 Bft) 97,87 %
06.01.2019 21:16 4,8 C 3,9 C 3,3 C 96 % 1032,0 hPa 0,0 l/m 0 min 0 min 0 W/m 0,0 km/h (0 Bft) 95,74 %
06.01.2019 21:18 4,8 C 3,9 C 3,3 C 96 % 1032,0 hPa 0,0 l/m 0 min 0 min 0 W/m 0,0 km/h (0 Bft) 95,74 %
06.01.2019 21:20 4,8 C 3,9 C 3,3 C 96 % 1031,9 hPa 0,0 l/m 0 min 0 min 0 W/m 0,0 km/h (0 Bft) 97,83 %
06.01.2019 21:22 4,8 C 3,9 C 3,3 C 96 % 1031,9 hPa 0,0 l/m 0 min 0 min 0 W/m 0,0 km/h (0 Bft) 97,87 %
06.01.2019 21:24 4,7 C 3,9 C 3,3 C 96 % 1031,9 hPa 0,0 l/m 0 min 0 min 0 W/m 0,0 km/h (0 Bft) 97,87 %
06.01.2019 21:26 4,7 C 3,9 C 3,3 C 96 % 1032,0 hPa 0,0 l/m 0 min 0 min 0 W/m 0,0 km/h (0 Bft) 95,74 %
06.01.2019 21:28 4,7 C 3,9 C 3,3 C 96 % 1032,0 hPa 0,0 l/m 0 min 0 min 0 W/m 0,0 km/h (0 Bft) 97,87 %
06.01.2019 21:30 4,7 C 3,9 C 3,3 C 96 % 1032,1 hPa 0,0 l/m 0 min 0 min 0 W/m 0,0 km/h (0 Bft) 95,74 %
06.01.2019 21:32 4,7 C 3,9 C 3,3 C 96 % 1032,1 hPa 0,0 l/m 0 min 0 min 0 W/m 0,0 km/h (0 Bft) 97,83 %
06.01.2019 21:34 4,7 C 3,9 C 3,3 C 96 % 1032,1 hPa 0,0 l/m 0 min 0 min 0 W/m 0,0 km/h (0 Bft) 97,87 %
06.01.2019 21:36 4,7 C 3,9 C 3,3 C 96 % 1032,1 hPa 0,0 l/m 0 min 2 min 0 W/m 0,0 km/h (0 Bft) 95,74 %
06.01.2019 21:38 4,7 C 3,9 C 3,3 C 96 % 1032,1 hPa 0,0 l/m 0 min 0 min 0 W/m 0,0 km/h (0 Bft) 93,62 %
06.01.2019 21:40 4,7 C 3,9 C 3,3 C 96 % 1032,1 hPa 0,0 l/m 0 min 0 min 0 W/m 0,0 km/h (0 Bft) 95,74 %
06.01.2019 21:42 4,7 C 3,9 C 3,3 C 96 % 1032,1 hPa 0,0 l/m 0 min 0 min 0 W/m 0,0 km/h (0 Bft) 93,62 %
06.01.2019 21:44 4,7 C 3,9 C 3,3 C 96 % 1032,1 hPa 0,0 l/m 0 min 0 min 0 W/m 0,0 km/h (0 Bft) 93,48 %
06.01.2019 21:46 4,7 C 3,9 C 3,3 C 96 % 1032,1 hPa 0,0 l/m 0 min 0 min 0 W/m 0,0 km/h (0 Bft) 95,74 %
06.01.2019 21:48 4,7 C 3,9 C 3,3 C 96 % 1032,1 hPa 0,0 l/m 0 min 0 min 0 W/m 0,0 km/h (0 Bft) 93,62 %
06.01.2019 21:50 4,7 C 3,9 C 3,3 C 96 % 1032,1 hPa 0,0 l/m 0 min 0 min 0 W/m 0,0 km/h (0 Bft) 93,62 %
06.01.2019 21:52 4,7 C 3,9 C 3,3 C 96 % 1032,2 hPa 0,0 l/m 0 min 0 min 0 W/m 0,0 km/h (0 Bft) 95,74 %
06.01.2019 21:54 4,7 C 3,9 C 3,3 C 96 % 1032,2 hPa 0,0 l/m 0 min 0 min 0 W/m 0,0 km/h (0 Bft) 95,74 %
06.01.2019 21:56 4,7 C 3,9 C 3,3 C 96 % 1032,2 hPa 0,0 l/m 0 min 0 min 0 W/m 0,0 km/h (0 Bft) 95,65 %
06.01.2019 21:58 4,7 C 3,9 C 3,3 C 96 % 1032,2 hPa 0,0 l/m 0 min 0 min 0 W/m 0,0 km/h (0 Bft) 93,62 %
06.01.2019 22:00 4,7 C 3,9 C 3,3 C 96 % 1032,2 hPa 0,0 l/m 0 min 0 min 0 W/m 0,0 km/h (0 Bft) 95,74 %
06.01.2019 22:02 4,6 C 3,9 C 3,3 C 96 % 1032,3 hPa 0,0 l/m 0 min 0 min 0 W/m 0,0 km/h (0 Bft) 93,62 %
06.01.2019 22:04 4,6 C 3,9 C 3,3 C 96 % 1032,2 hPa 0,0 l/m 0 min 0 min 0 W/m 0,0 km/h (0 Bft) 91,49 %
06.01.2019 22:06 4,6 C 3,9 C 3,3 C 96 % 1032,2 hPa 0,0 l/m 0 min 0 min 0 W/m 0,0 km/h (0 Bft) 91,49 %
06.01.2019 22:08 4,6 C 3,9 C 3,3 C 96 % 1032,1 hPa 0,0 l/m 0 min 0 min 0 W/m 0,0 km/h (0 Bft) 97,62 %
06.01.2019 22:10 4,6 C 3,3 C 3,3 C 96 % 1032,3 hPa 0,0 l/m 0 min 0 min 0 W/m 0,0 km/h (0 Bft) 93,62 %
06.01.2019 22:12 4,6 C 3,3 C 3,3 C 96 % 1032,2 hPa 0,0 l/m 0 min 0 min 0 W/m 0,0 km/h (0 Bft) 95,74 %
06.01.2019 22:14 4,6 C 3,3 C 3,3 C 96 % 1032,1 hPa 0,0 l/m 0 min 0 min 0 W/m 0,0 km/h (0 Bft) 97,87 %
06.01.2019 22:16 4,6 C 3,3 C 3,3 C 96 % 1032,1 hPa 0,0 l/m 0 min 0 min 0 W/m 0,0 km/h (0 Bft) 97,87 %
06.01.2019 22:18 4,6 C 3,3 C 3,3 C 96 % 1032,2 hPa 0,0 l/m 0 min 0 min 0 W/m 0,0 km/h (0 Bft) 97,83 %
06.01.2019 22:20 4,6 C 3,3 C 3,3 C 96 % 1032,2 hPa 0,0 l/m 0 min 0 min 0 W/m 0,0 km/h (0 Bft) 97,87 %
06.01.2019 22:22 4,6 C 3,3 C 3,3 C 96 % 1032,2 hPa 0,0 l/m 0 min 0 min 0 W/m 0,0 km/h (0 Bft) 97,87 %
06.01.2019 22:24 4,6 C 3,3 C 3,3 C 96 % 1032,2 hPa 0,0 l/m 0 min 0 min 0 W/m 0,0 km/h (0 Bft) 97,87 %
06.01.2019 22:26 4,5 C 3,3 C 3,3 C 96 % 1032,3 hPa 0,0 l/m 0 min 0 min 0 W/m 0,0 km/h (0 Bft) 97,87 %
06.01.2019 22:28 4,5 C 3,3 C 3,3 C 96 % 1032,4 hPa 0,0 l/m 0 min 0 min 0 W/m 0,0 km/h (0 Bft) 97,87 %
06.01.2019 22:30 4,5 C 3,3 C 3,3 C 97 % 1032,4 hPa 0,0 l/m 0 min 0 min 0 W/m 0,0 km/h (0 Bft) 95,65 %
06.01.2019 22:32 4,5 C 3,3 C 3,3 C 97 % 1032,4 hPa 0,0 l/m 0 min 0 min 0 W/m 0,0 km/h (0 Bft) 97,92 %
06.01.2019 22:34 4,5 C 3,3 C 3,3 C 97 % 1032,4 hPa 0,0 l/m 0 min 0 min 0 W/m 0,0 km/h (0 Bft) 100,00 %
06.01.2019 22:36 4,5 C 3,3 C 3,3 C 97 % 1032,4 hPa 0,0 l/m 0 min 0 min 0 W/m 0,0 km/h (0 Bft) 100,00 %
06.01.2019 22:38 4,5 C 3,3 C 3,3 C 97 % 1032,3 hPa 0,0 l/m 0 min 0 min 0 W/m 0,0 km/h (0 Bft) 100,00 %
06.01.2019 22:40 4,4 C 3,3 C 3,3 C 97 % 1032,4 hPa 0,0 l/m 0 min 0 min 0 W/m 0,0 km/h (0 Bft) 100,00 %
06.01.2019 22:42 4,4 C 3,3 C 3,3 C 97 % 1032,3 hPa 0,0 l/m 0 min 0 min 0 W/m 0,0 km/h (0 Bft) 95,74 %
06.01.2019 22:44 4,4 C 3,3 C 3,3 C 97 % 1032,3 hPa 0,0 l/m 0 min 0 min 0 W/m 0,0 km/h (0 Bft) 100,00 %
06.01.2019 22:46 4,4 C 3,3 C 3,3 C 97 % 1032,4 hPa 0,0 l/m 0 min 0 min 0 W/m 0,0 km/h (0 Bft) 100,00 %
06.01.2019 22:48 4,4 C 3,3 C 3,3 C 97 % 1032,3 hPa 0,0 l/m 0 min 0 min 0 W/m 0,0 km/h (0 Bft) 100,00 %
06.01.2019 22:50 4,4 C 3,3 C 3,3 C 97 % 1032,3 hPa 0,0 l/m 0 min 0 min 0 W/m 0,0 km/h (0 Bft) 100,00 %
06.01.2019 22:52 4,4 C 3,3 C 3,3 C 97 % 1032,2 hPa 0,0 l/m 0 min 0 min 0 W/m 0,0 km/h (0 Bft) 97,83 %
06.01.2019 22:54 4,4 C 3,3 C 3,3 C 97 % 1032,3 hPa 0,0 l/m 0 min 0 min 0 W/m 0,0 km/h (0 Bft) 100,00 %
06.01.2019 22:56 4,4 C 3,3 C 3,3 C 97 % 1032,3 hPa 0,0 l/m 0 min 0 min 0 W/m 0,0 km/h (0 Bft) 100,00 %
06.01.2019 22:58 4,4 C 3,3 C 3,3 C 97 % 1032,3 hPa 0,0 l/m 0 min 0 min 0 W/m 6,4 km/h (2 Bft) 100,00 %
06.01.2019 23:00 4,4 C 3,3 C 3,3 C 97 % 1032,2 hPa 0,0 l/m 0 min 0 min 0 W/m 3,2 km/h (1 Bft) 100,00 %
06.01.2019 23:02 4,4 C 3,3 C 3,3 C 97 % 1032,3 hPa 0,0 l/m 0 min 0 min 0 W/m 3,2 km/h (1 Bft) 100,00 %
06.01.2019 23:04 4,4 C 3,3 C 3,3 C 97 % 1032,3 hPa 0,0 l/m 0 min 0 min 0 W/m 3,2 km/h (1 Bft) 100,00 %
06.01.2019 23:06 4,4 C 3,3 C 3,3 C 97 % 1032,4 hPa 0,0 l/m 0 min 0 min 0 W/m 3,2 km/h (1 Bft) 100,00 %
06.01.2019 23:08 4,4 C 3,3 C 3,3 C 97 % 1032,4 hPa 0,0 l/m 0 min 0 min 0 W/m 0,0 km/h (0 Bft) 100,00 %
06.01.2019 23:10 4,4 C 3,3 C 3,3 C 97 % 1032,3 hPa 0,0 l/m 0 min 0 min 0 W/m 0,0 km/h (0 Bft) 100,00 %
06.01.2019 23:12 4,4 C 3,3 C 3,3 C 97 % 1032,3 hPa 0,0 l/m 0 min 0 min 0 W/m 0,0 km/h (0 Bft) 100,00 %
06.01.2019 23:14 4,4 C 3,3 C 3,3 C 97 % 1032,2 hPa 0,0 l/m 0 min 0 min 0 W/m 0,0 km/h (0 Bft) 100,00 %
06.01.2019 23:16 4,4 C 3,3 C 3,3 C 97 % 1032,2 hPa 0,0 l/m 0 min 0 min 0 W/m 0,0 km/h (0 Bft) 97,83 %
06.01.2019 23:18 4,3 C 3,3 C 3,3 C 97 % 1032,2 hPa 0,0 l/m 0 min 0 min 0 W/m 0,0 km/h (0 Bft) 100,00 %
06.01.2019 23:20 4,3 C 3,3 C 3,3 C 97 % 1032,2 hPa 0,0 l/m 0 min 0 min 0 W/m 0,0 km/h (0 Bft) 97,87 %
06.01.2019 23:22 4,3 C 3,3 C 3,3 C 97 % 1032,2 hPa 0,0 l/m 0 min 0 min 0 W/m 0,0 km/h (0 Bft) 95,74 %
06.01.2019 23:24 4,3 C 3,3 C 3,3 C 97 % 1032,2 hPa 0,0 l/m 0 min 0 min 0 W/m 0,0 km/h (0 Bft) 95,74 %
06.01.2019 23:26 4,3 C 3,3 C 3,3 C 97 % 1032,2 hPa 0,0 l/m 0 min 0 min 0 W/m 0,0 km/h (0 Bft) 97,87 %
06.01.2019 23:28 4,3 C 3,3 C 2,8 C 97 % 1032,2 hPa 0,0 l/m 0 min 0 min 0 W/m 0,0 km/h (0 Bft) 97,83 %
06.01.2019 23:30 4,3 C 3,3 C 3,3 C 97 % 1032,2 hPa 0,0 l/m 0 min 0 min 0 W/m 0,0 km/h (0 Bft) 97,87 %
06.01.2019 23:32 4,3 C 3,3 C 3,3 C 97 % 1032,2 hPa 0,0 l/m 0 min 0 min 0 W/m 0,0 km/h (0 Bft) 97,87 %
06.01.2019 23:34 4,3 C 3,3 C 3,3 C 97 % 1032,2 hPa 0,0 l/m 0 min 0 min 0 W/m 0,0 km/h (0 Bft) 95,74 %
06.01.2019 23:36 4,3 C 3,3 C 3,3 C 97 % 1032,2 hPa 0,0 l/m 0 min 0 min 0 W/m 0,0 km/h (0 Bft) 97,87 %
06.01.2019 23:38 4,3 C 3,3 C 3,3 C 97 % 1032,2 hPa 0,0 l/m 0 min 0 min 0 W/m 0,0 km/h (0 Bft) 95,74 %
06.01.2019 23:40 4,3 C 3,3 C 3,3 C 97 % 1032,2 hPa 0,0 l/m 0 min 0 min 0 W/m 0,0 km/h (0 Bft) 97,83 %
06.01.2019 23:42 4,3 C 3,3 C 2,8 C 97 % 1032,1 hPa 0,0 l/m 0 min 0 min 0 W/m 0,0 km/h (0 Bft) 93,62 %
06.01.2019 23:44 4,3 C 3,3 C 3,3 C 97 % 1032,1 hPa 0,0 l/m 0 min 0 min 0 W/m 0,0 km/h (0 Bft) 97,87 %
06.01.2019 23:46 4,3 C 3,3 C 3,3 C 97 % 1032,1 hPa 0,0 l/m 0 min 0 min 0 W/m 0,0 km/h (0 Bft) 95,74 %
06.01.2019 23:48 4,3 C 3,3 C 2,8 C 97 % 1032,2 hPa 0,0 l/m 0 min 0 min 0 W/m 0,0 km/h (0 Bft) 97,87 %
06.01.2019 23:50 4,2 C 3,3 C 2,8 C 97 % 1032,2 hPa 0,0 l/m 0 min 0 min 0 W/m 0,0 km/h (0 Bft) 97,87 %
06.01.2019 23:52 4,3 C 3,3 C 2,8 C 97 % 1032,2 hPa 0,0 l/m 0 min 0 min 0 W/m 0,0 km/h (0 Bft) 97,83 %
06.01.2019 23:54 4,2 C 3,3 C 2,8 C 97 % 1032,1 hPa 0,0 l/m 0 min 0 min 0 W/m 0,0 km/h (0 Bft) 95,74 %
06.01.2019 23:56 4,2 C 3,3 C 3,3 C 97 % 1032,1 hPa 0,0 l/m 0 min 0 min 0 W/m 0,0 km/h (0 Bft) 95,74 %
06.01.2019 23:58 4,2 C 3,3 C 3,3 C 97 % 1032,2 hPa 0,0 l/m 0 min 0 min 0 W/m 0,0 km/h (0 Bft) 95,74 %
_ Min-Zeit 23:50 22:10 23:28 16:14 00:16 - - - - 20:02 06:24
Minimum _ 4,2 C 3,3 C 2,8 C 93 % 1029,0 hPa - - - - 0,0 km/h (0 Bft) 87,23 %
_ Max-Zeit 15:04 14:14 14:12 10:22 22:28 09:52 00:00 18:08 12:16 05:26 00:08
Maximum _ 6,4 C 6,7 C 5,6 C 99 % 1032,4 hPa 0,2 l/m 0 min 4 min 120 W/m 35,4 km/h
N (5 Bft)
100,00 %
Durchschnitt _ 5,2 C 4,6 C 4,0 C 97 % 1030,7 hPa #0,6 l/m #0 min. #1:22 h 55 W/m 10,2 km/h (2 Bft) 97,48 %
© 2019 W. Hausmann